Time,TemperatureF,DewpointF,PressureIn,WindDirection,WindDirectionDegrees,WindSpeedMPH,WindSpeedGustMPH,Humidity,HourlyPrecipIn,Conditions,Clouds,dailyrainin,SoftwareType,DateUTC
2013-10-04 00:00:00,71.8,66.3,29.89,South,180,8.7,11.4,83,0.00,,,0.00,WUHU216HW,2013-10-04 05:00:00,
2013-10-04 00:01:00,71.8,66.3,29.89,SSE,158,9.8,11.4,83,0.00,,,0.00,WUHU216HW,2013-10-04 05:01:00,
2013-10-04 00:02:00,72.0,66.5,29.89,SSE,158,9.2,11.4,83,0.00,,,0.00,WUHU216HW,2013-10-04 05:02:00,
2013-10-04 00:03:00,72.0,66.5,29.89,ESE,113,8.9,11.4,83,0.00,,,0.00,WUHU216HW,2013-10-04 05:03:00,
2013-10-04 00:04:00,71.8,66.3,29.89,SE,135,8.9,11.4,83,0.00,,,0.00,WUHU216HW,2013-10-04 05:04:00,
2013-10-04 00:06:00,71.8,66.3,29.89,SSE,158,9.2,11.4,83,0.00,,,0.00,WUHU216HW,2013-10-04 05:06:00,
2013-10-04 00:07:00,71.8,66.3,29.89,SSE,158,10.5,11.4,83,0.00,,,0.00,WUHU216HW,2013-10-04 05:07:00,
2013-10-04 00:08:00,71.8,66.3,29.89,SSE,158,7.8,11.4,83,0.00,,,0.00,WUHU216HW,2013-10-04 05:08:00,
2013-10-04 00:09:00,71.8,66.3,29.89,SSE,158,8.3,11.4,83,0.00,,,0.00,WUHU216HW,2013-10-04 05:09:00,
2013-10-04 00:10:00,71.8,66.3,29.89,South,180,7.4,11.2,83,0.00,,,0.00,WUHU216HW,2013-10-04 05:10:00,
2013-10-04 00:12:00,71.8,66.3,29.89,SSE,158,8.5,10.5,83,0.00,,,0.00,WUHU216HW,2013-10-04 05:12:00,
2013-10-04 00:13:00,71.8,66.3,29.89,SE,135,8.5,10.5,83,0.00,,,0.00,WUHU216HW,2013-10-04 05:13:00,
2013-10-04 00:15:00,71.8,66.3,29.89,SSE,158,9.8,10.5,83,0.00,,,0.00,WUHU216HW,2013-10-04 05:15:00,
2013-10-04 00:17:00,71.8,66.3,29.89,SE,135,7.8,10.5,83,0.00,,,0.00,WUHU216HW,2013-10-04 05:17:00,
2013-10-04 00:18:00,71.8,66.3,29.89,SSE,158,7.2,10.3,83,0.00,,,0.00,WUHU216HW,2013-10-04 05:18:00,
2013-10-04 00:21:00,71.6,66.2,29.89,South,180,6.7,9.8,83,0.00,,,0.00,WUHU216HW,2013-10-04 05:21:00,
2013-10-04 00:23:00,71.8,66.3,29.89,SSE,158,8.1,12.1,83,0.00,,,0.00,WUHU216HW,2013-10-04 05:23:00,
2013-10-04 00:24:00,71.6,66.2,29.89,SSE,158,9.8,12.1,83,0.00,,,0.00,WUHU216HW,2013-10-04 05:24:00,
2013-10-04 00:27:00,71.8,66.3,29.89,South,180,10.5,12.1,83,0.00,,,0.00,WUHU216HW,2013-10-04 05:27:00,
2013-10-04 00:29:00,72.0,66.5,29.89,SSE,158,9.8,12.1,83,0.00,,,0.00,WUHU216HW,2013-10-04 05:29:00,
2013-10-04 00:30:00,72.0,66.5,29.89,SSE,158,8.1,12.1,83,0.00,,,0.00,WUHU216HW,2013-10-04 05:30:00,
2013-10-04 00:32:00,72.0,66.5,29.89,South,180,7.6,12.1,83,0.00,,,0.00,WUHU216HW,2013-10-04 05:32:00,
2013-10-04 00:34:00,71.8,66.3,29.89,SSE,158,10.3,11.4,83,0.00,,,0.00,WUHU216HW,2013-10-04 05:34:00,
2013-10-04 00:36:00,71.8,66.3,29.89,SSE,158,5.8,11.4,83,0.00,,,0.00,WUHU216HW,2013-10-04 05:36:00,
2013-10-04 00:37:00,71.8,66.3,29.89,SSW,203,5.4,11.4,83,0.00,,,0.00,WUHU216HW,2013-10-04 05:37:00,
2013-10-04 00:39:00,71.8,66.7,29.89,SSE,158,9.8,11.4,84,0.00,,,0.00,WUHU216HW,2013-10-04 05:39:00,
2013-10-04 00:40:00,71.8,66.7,29.89,SSE,158,8.1,11.4,84,0.00,,,0.00,WUHU216HW,2013-10-04 05:40:00,
2013-10-04 00:41:00,71.8,66.7,29.89,SE,135,10.7,11.4,84,0.00,,,0.00,WUHU216HW,2013-10-04 05:41:00,
2013-10-04 00:42:00,71.8,66.7,29.89,SSE,158,9.2,11.4,84,0.00,,,0.00,WUHU216HW,2013-10-04 05:42:00,
2013-10-04 00:43:00,71.8,66.7,29.89,SSE,158,9.2,11.4,84,0.00,,,0.00,WUHU216HW,2013-10-04 05:43:00,
2013-10-04 00:44:00,71.8,66.7,29.89,SSE,158,7.8,10.7,84,0.00,,,0.00,WUHU216HW,2013-10-04 05:44:00,
2013-10-04 00:45:00,71.8,66.3,29.89,SSE,158,9.8,10.7,83,0.00,,,0.00,WUHU216HW,2013-10-04 05:45:00,
2013-10-04 00:46:00,71.8,66.7,29.89,SSE,158,9.2,10.7,84,0.00,,,0.00,WUHU216HW,2013-10-04 05:46:00,
2013-10-04 00:48:00,71.6,66.5,29.90,SSE,158,6.7,10.7,84,0.00,,,0.00,WUHU216HW,2013-10-04 05:48:00,
2013-10-04 00:49:00,71.6,66.5,29.89,SSE,158,7.2,10.7,84,0.00,,,0.00,WUHU216HW,2013-10-04 05:49:00,
2013-10-04 00:50:00,71.6,66.5,29.90,South,180,8.1,10.7,84,0.00,,,0.00,WUHU216HW,2013-10-04 05:50:00,
2013-10-04 00:51:00,71.6,66.5,29.90,SSE,158,11.6,11.6,84,0.00,,,0.00,WUHU216HW,2013-10-04 05:51:00,
2013-10-04 00:53:00,71.6,66.5,29.90,South,180,8.7,11.6,84,0.00,,,0.00,WUHU216HW,2013-10-04 05:53:00,
2013-10-04 00:54:00,71.6,66.5,29.90,SSE,158,9.8,11.6,84,0.00,,,0.00,WUHU216HW,2013-10-04 05:54:00,
2013-10-04 00:55:00,71.6,66.5,29.90,South,180,6.9,11.6,84,0.00,,,0.00,WUHU216HW,2013-10-04 05:55:00,
2013-10-04 00:57:00,71.6,66.5,29.90,SSE,158,7.8,11.6,84,0.00,,,0.00,WUHU216HW,2013-10-04 05:57:00,
2013-10-04 00:59:00,71.6,66.5,29.90,South,180,8.7,11.6,84,0.00,,,0.00,WUHU216HW,2013-10-04 05:59:00,
2013-10-04 01:00:00,71.6,66.5,29.89,SSE,158,6.3,11.6,84,0.00,,,0.00,WUHU216HW,2013-10-04 06:00:00,
2013-10-04 01:01:00,71.5,66.3,29.89,SE,135,8.5,11.6,84,0.00,,,0.00,WUHU216HW,2013-10-04 06:01:00,
2013-10-04 01:03:00,71.5,66.3,29.90,SSE,158,6.0,9.8,84,0.00,,,0.00,WUHU216HW,2013-10-04 06:03:00,
2013-10-04 01:04:00,71.5,66.3,29.89,South,180,9.4,9.4,84,0.00,,,0.00,WUHU216HW,2013-10-04 06:04:00,
2013-10-04 01:05:00,71.5,66.3,29.89,SSE,158,8.1,9.8,84,0.00,,,0.00,WUHU216HW,2013-10-04 06:05:00,
2013-10-04 01:06:00,71.5,66.3,29.89,SSE,158,8.5,9.8,84,0.00,,,0.00,WUHU216HW,2013-10-04 06:06:00,
2013-10-04 01:09:00,71.5,66.3,29.90,SSE,158,8.1,10.5,84,0.00,,,0.00,WUHU216HW,2013-10-04 06:09:00,
2013-10-04 01:10:00,71.5,66.3,29.90,SSE,158,7.2,10.5,84,0.00,,,0.00,WUHU216HW,2013-10-04 06:10:00,
2013-10-04 01:11:00,71.5,66.3,29.90,SSE,158,10.1,10.5,84,0.00,,,0.00,WUHU216HW,2013-10-04 06:11:00,
2013-10-04 01:12:00,71.5,66.7,29.90,SSE,158,5.8,10.5,85,0.00,,,0.00,WUHU216HW,2013-10-04 06:12:00,
2013-10-04 01:14:00,71.5,66.3,29.90,SSE,158,7.2,10.5,84,0.00,,,0.00,WUHU216HW,2013-10-04 06:14:00,
2013-10-04 01:15:00,71.5,66.3,29.90,SSE,158,9.2,10.5,84,0.00,,,0.00,WUHU216HW,2013-10-04 06:15:00,
2013-10-04 01:16:00,71.5,66.7,29.90,SSE,158,7.6,10.5,85,0.00,,,0.00,WUHU216HW,2013-10-04 06:16:00,
2013-10-04 01:18:00,71.5,66.7,29.90,SE,135,9.8,10.7,85,0.00,,,0.00,WUHU216HW,2013-10-04 06:18:00,
2013-10-04 01:19:00,71.5,66.7,29.90,SSE,158,8.7,10.7,85,0.00,,,0.00,WUHU216HW,2013-10-04 06:19:00,
2013-10-04 01:20:00,71.5,66.7,29.90,SSE,158,6.0,10.7,85,0.00,,,0.00,WUHU216HW,2013-10-04 06:20:00,
2013-10-04 01:21:00,71.5,66.7,29.90,SSE,158,4.7,10.7,85,0.00,,,0.00,WUHU216HW,2013-10-04 06:21:00,
2013-10-04 01:23:00,71.3,66.5,29.90,SSE,158,5.4,10.7,85,0.00,,,0.00,WUHU216HW,2013-10-04 06:23:00,
2013-10-04 01:25:00,71.3,66.5,29.90,SE,135,8.5,10.7,85,0.00,,,0.00,WUHU216HW,2013-10-04 06:25:00,
2013-10-04 01:26:00,71.3,66.5,29.90,SSE,158,5.4,10.7,85,0.00,,,0.00,WUHU216HW,2013-10-04 06:26:00,
2013-10-04 01:28:00,71.3,66.5,29.91,SSE,158,8.5,12.1,85,0.00,,,0.00,WUHU216HW,2013-10-04 06:28:00,
2013-10-04 01:30:00,71.3,66.5,29.90,SSE,158,8.7,12.1,85,0.00,,,0.00,WUHU216HW,2013-10-04 06:30:00,
2013-10-04 01:31:00,71.3,66.5,29.90,SSE,158,6.7,12.1,85,0.00,,,0.00,WUHU216HW,2013-10-04 06:31:00,
2013-10-04 01:32:00,71.3,66.5,29.90,SSE,158,6.9,12.1,85,0.00,,,0.00,WUHU216HW,2013-10-04 06:32:00,
2013-10-04 01:33:00,71.1,66.7,29.90,South,180,6.9,12.1,86,0.00,,,0.00,WUHU216HW,2013-10-04 06:33:00,
2013-10-04 01:36:00,71.1,66.7,29.91,SSE,158,7.2,12.1,86,0.00,,,0.00,WUHU216HW,2013-10-04 06:36:00,
2013-10-04 01:37:00,71.1,66.7,29.91,SSE,158,8.1,12.1,86,0.00,,,0.00,WUHU216HW,2013-10-04 06:37:00,
2013-10-04 01:38:00,71.3,66.9,29.91,SSE,158,9.4,9.8,86,0.00,,,0.00,WUHU216HW,2013-10-04 06:38:00,
2013-10-04 01:41:00,71.3,66.9,29.91,SSE,158,9.4,12.8,86,0.00,,,0.00,WUHU216HW,2013-10-04 06:41:00,
2013-10-04 01:42:00,71.3,66.9,29.91,SSE,158,6.9,12.8,86,0.00,,,0.00,WUHU216HW,2013-10-04 06:42:00,
2013-10-04 01:43:00,71.3,66.9,29.91,SE,135,10.1,12.8,86,0.00,,,0.00,WUHU216HW,2013-10-04 06:43:00,
2013-10-04 01:44:00,71.3,66.9,29.91,SSE,158,11.4,12.8,86,0.00,,,0.00,WUHU216HW,2013-10-04 06:44:00,
2013-10-04 01:46:00,71.3,66.9,29.91,SSE,158,8.1,12.8,86,0.00,,,0.00,WUHU216HW,2013-10-04 06:46:00,
2013-10-04 01:47:00,71.3,66.9,29.91,SSE,158,13.2,13.2,86,0.00,,,0.00,WUHU216HW,2013-10-04 06:47:00,
2013-10-04 01:48:00,71.3,66.9,29.91,SSE,158,11.0,13.2,86,0.00,,,0.00,WUHU216HW,2013-10-04 06:48:00,
2013-10-04 01:49:00,71.3,66.9,29.91,SSE,158,8.3,13.2,86,0.00,,,0.00,WUHU216HW,2013-10-04 06:49:00,
2013-10-04 01:52:00,71.3,66.9,29.91,SSE,158,9.2,13.2,86,0.00,,,0.00,WUHU216HW,2013-10-04 06:52:00,
2013-10-04 01:53:00,71.3,66.9,29.91,SSE,158,9.2,13.2,86,0.00,,,0.00,WUHU216HW,2013-10-04 06:53:00,
2013-10-04 01:54:00,71.3,66.9,29.91,South,180,7.2,13.2,86,0.00,,,0.00,WUHU216HW,2013-10-04 06:54:00,
2013-10-04 01:57:00,71.3,66.9,29.91,SSE,158,8.1,11.6,86,0.00,,,0.00,WUHU216HW,2013-10-04 06:57:00,
2013-10-04 01:58:00,71.3,66.9,29.91,SSE,158,6.7,11.6,86,0.00,,,0.00,WUHU216HW,2013-10-04 06:58:00,
2013-10-04 01:59:00,71.1,66.7,29.91,SE,135,11.6,11.6,86,0.00,,,0.00,WUHU216HW,2013-10-04 06:59:00,
2013-10-04 02:00:00,71.3,66.9,29.91,SSE,158,8.3,11.6,86,0.00,,,0.00,WUHU216HW,2013-10-04 07:00:00,
2013-10-04 02:02:00,71.3,66.9,29.91,SSE,158,8.5,11.6,86,0.00,,,0.00,WUHU216HW,2013-10-04 07:02:00,
2013-10-04 02:03:00,71.1,66.7,29.91,SSE,158,9.8,11.6,86,0.00,,,0.00,WUHU216HW,2013-10-04 07:03:00,
2013-10-04 02:04:00,71.1,66.7,29.91,South,180,8.3,11.6,86,0.00,,,0.00,WUHU216HW,2013-10-04 07:04:00,
2013-10-04 02:06:00,71.3,66.9,29.91,SE,135,9.2,11.6,86,0.00,,,0.00,WUHU216HW,2013-10-04 07:06:00,
2013-10-04 02:07:00,71.1,66.7,29.91,SSE,158,6.9,11.6,86,0.00,,,0.00,WUHU216HW,2013-10-04 07:07:00,
2013-10-04 02:08:00,71.1,66.7,29.91,SE,135,6.3,11.6,86,0.00,,,0.00,WUHU216HW,2013-10-04 07:08:00,
2013-10-04 02:09:00,71.1,66.7,29.91,SSE,158,9.8,11.6,86,0.00,,,0.00,WUHU216HW,2013-10-04 07:09:00,
2013-10-04 02:10:00,71.1,66.7,29.91,SSE,158,8.7,11.2,86,0.00,,,0.00,WUHU216HW,2013-10-04 07:10:00,
2013-10-04 02:13:00,71.3,66.9,29.91,SE,135,9.8,12.1,86,0.00,,,0.00,WUHU216HW,2013-10-04 07:13:00,
2013-10-04 02:15:00,71.3,66.9,29.91,South,180,8.3,12.1,86,0.00,,,0.00,WUHU216HW,2013-10-04 07:15:00,
2013-10-04 02:18:00,71.3,66.9,29.91,SSE,158,7.6,12.1,86,0.00,,,0.00,WUHU216HW,2013-10-04 07:18:00,
2013-10-04 02:19:00,71.1,66.7,29.91,SSE,158,7.6,12.1,86,0.00,,,0.00,WUHU216HW,2013-10-04 07:19:00,
2013-10-04 02:20:00,71.1,66.7,29.91,SSE,158,7.6,12.1,86,0.00,,,0.00,WUHU216HW,2013-10-04 07:20:00,
2013-10-04 02:21:00,71.1,66.7,29.91,SSE,158,7.6,11.2,86,0.00,,,0.00,WUHU216HW,2013-10-04 07:21:00,
2013-10-04 02:23:00,71.1,67.1,29.91,SSE,158,8.3,11.0,87,0.00,,,0.00,WUHU216HW,2013-10-04 07:23:00,
2013-10-04 02:24:00,71.1,67.1,29.91,SSE,158,7.8,11.0,87,0.00,,,0.00,WUHU216HW,2013-10-04 07:24:00,
2013-10-04 02:25:00,71.1,67.1,29.91,SSE,158,11.4,11.4,87,0.00,,,0.00,WUHU216HW,2013-10-04 07:25:00,
2013-10-04 02:27:00,71.1,66.7,29.91,South,180,9.6,12.8,86,0.00,,,0.00,WUHU216HW,2013-10-04 07:27:00,
2013-10-04 02:28:00,71.3,66.9,29.90,South,180,8.1,12.8,86,0.00,,,0.00,WUHU216HW,2013-10-04 07:28:00,
2013-10-04 02:29:00,71.1,66.7,29.90,South,180,9.2,12.8,86,0.00,,,0.00,WUHU216HW,2013-10-04 07:29:00,
2013-10-04 02:31:00,71.1,67.1,29.90,SSE,158,9.2,12.8,87,0.00,,,0.00,WUHU216HW,2013-10-04 07:31:00,
2013-10-04 02:33:00,71.1,67.1,29.90,SSE,158,10.1,12.8,87,0.00,,,0.00,WUHU216HW,2013-10-04 07:33:00,
2013-10-04 02:34:00,71.1,67.1,29.90,South,180,7.8,12.8,87,0.00,,,0.00,WUHU216HW,2013-10-04 07:34:00,
2013-10-04 02:36:00,71.1,67.1,29.90,SSE,158,6.3,12.8,87,0.00,,,0.00,WUHU216HW,2013-10-04 07:36:00,
2013-10-04 02:37:00,70.9,66.9,29.90,SSE,158,11.4,12.1,87,0.00,,,0.00,WUHU216HW,2013-10-04 07:37:00,
2013-10-04 02:38:00,71.1,67.1,29.90,SSE,158,10.5,12.1,87,0.00,,,0.00,WUHU216HW,2013-10-04 07:38:00,
2013-10-04 02:39:00,71.1,67.1,29.90,SSE,158,8.7,12.1,87,0.00,,,0.00,WUHU216HW,2013-10-04 07:39:00,
2013-10-04 02:40:00,71.1,67.1,29.90,SSE,158,8.7,12.1,87,0.00,,,0.00,WUHU216HW,2013-10-04 07:40:00,
2013-10-04 02:41:00,71.1,67.1,29.90,South,180,11.4,11.4,87,0.00,,,0.00,WUHU216HW,2013-10-04 07:41:00,
2013-10-04 02:42:00,71.1,67.1,29.90,SSE,158,7.2,11.4,87,0.00,,,0.00,WUHU216HW,2013-10-04 07:42:00,
2013-10-04 02:44:00,71.1,67.1,29.90,SSE,158,7.2,11.4,87,0.00,,,0.00,WUHU216HW,2013-10-04 07:44:00,
2013-10-04 02:45:00,71.1,67.1,29.90,SSE,158,8.3,11.4,87,0.00,,,0.00,WUHU216HW,2013-10-04 07:45:00,
2013-10-04 02:46:00,70.9,66.9,29.90,South,180,9.2,11.4,87,0.00,,,0.00,WUHU216HW,2013-10-04 07:46:00,
2013-10-04 02:48:00,71.1,67.1,29.90,SSE,158,5.8,11.4,87,0.00,,,0.00,WUHU216HW,2013-10-04 07:48:00,
2013-10-04 02:49:00,70.9,66.9,29.90,SSE,158,7.4,11.4,87,0.00,,,0.00,WUHU216HW,2013-10-04 07:49:00,
2013-10-04 02:50:00,70.9,66.9,29.90,SSE,158,8.5,11.4,87,0.00,,,0.00,WUHU216HW,2013-10-04 07:50:00,
2013-10-04 02:53:00,70.9,66.9,29.90,South,180,7.6,10.3,87,0.00,,,0.00,WUHU216HW,2013-10-04 07:53:00,
2013-10-04 02:54:00,70.9,67.1,29.90,SE,135,8.7,10.3,88,0.00,,,0.00,WUHU216HW,2013-10-04 07:54:00,
2013-10-04 02:55:00,70.9,66.9,29.90,South,180,6.7,10.3,87,0.00,,,0.00,WUHU216HW,2013-10-04 07:55:00,
2013-10-04 02:56:00,70.9,66.9,29.90,SE,135,6.0,10.3,87,0.00,,,0.00,WUHU216HW,2013-10-04 07:56:00,
2013-10-04 02:58:00,70.9,67.1,29.90,SSE,158,7.8,12.1,88,0.00,,,0.00,WUHU216HW,2013-10-04 07:58:00,
2013-10-04 02:59:00,70.9,67.1,29.90,SSE,158,9.2,12.1,88,0.00,,,0.00,WUHU216HW,2013-10-04 07:59:00,
2013-10-04 03:00:00,70.9,66.9,29.90,SSE,158,8.5,12.1,87,0.00,,,0.00,WUHU216HW,2013-10-04 08:00:00,
2013-10-04 03:01:00,70.9,67.1,29.90,SSE,158,8.7,12.1,88,0.00,,,0.00,WUHU216HW,2013-10-04 08:01:00,
2013-10-04 03:03:00,70.9,66.9,29.90,SSE,158,6.3,12.1,87,0.00,,,0.00,WUHU216HW,2013-10-04 08:03:00,
2013-10-04 03:05:00,71.1,67.1,29.90,SSE,158,8.7,12.1,87,0.00,,,0.00,WUHU216HW,2013-10-04 08:05:00,
2013-10-04 03:07:00,71.1,67.1,29.90,SSE,158,9.2,12.1,87,0.00,,,0.00,WUHU216HW,2013-10-04 08:07:00,
2013-10-04 03:08:00,71.1,67.1,29.90,SSE,158,11.6,11.6,87,0.00,,,0.00,WUHU216HW,2013-10-04 08:08:00,
2013-10-04 03:09:00,71.1,67.1,29.90,SSE,158,8.9,11.6,87,0.00,,,0.00,WUHU216HW,2013-10-04 08:09:00,
2013-10-04 03:10:00,71.1,67.1,29.90,SSE,158,8.9,11.6,87,0.00,,,0.00,WUHU216HW,2013-10-04 08:10:00,
2013-10-04 03:11:00,71.1,67.1,29.90,SSE,158,11.9,11.9,87,0.00,,,0.00,WUHU216HW,2013-10-04 08:11:00,
2013-10-04 03:12:00,71.1,67.1,29.90,SSE,158,9.4,11.9,87,0.00,,,0.00,WUHU216HW,2013-10-04 08:12:00,
2013-10-04 03:14:00,71.1,67.1,29.90,South,180,8.1,11.9,87,0.00,,,0.00,WUHU216HW,2013-10-04 08:14:00,
2013-10-04 03:15:00,71.1,67.1,29.90,SE,135,8.7,11.9,87,0.00,,,0.00,WUHU216HW,2013-10-04 08:15:00,
2013-10-04 03:17:00,71.1,67.1,29.90,SSE,158,7.6,11.9,87,0.00,,,0.00,WUHU216HW,2013-10-04 08:17:00,
2013-10-04 03:19:00,70.9,67.1,29.90,South,180,7.6,11.9,88,0.00,,,0.00,WUHU216HW,2013-10-04 08:19:00,
2013-10-04 03:20:00,70.9,67.1,29.90,SSE,158,4.9,11.9,88,0.00,,,0.00,WUHU216HW,2013-10-04 08:20:00,
2013-10-04 03:22:00,70.9,67.1,29.90,SSE,158,6.5,10.7,88,0.00,,,0.00,WUHU216HW,2013-10-04 08:22:00,
2013-10-04 03:23:00,70.7,67.0,29.90,SSE,158,9.6,10.7,88,0.00,,,0.00,WUHU216HW,2013-10-04 08:23:00,
2013-10-04 03:24:00,70.7,67.0,29.90,SSE,158,6.0,10.7,88,0.00,,,0.00,WUHU216HW,2013-10-04 08:24:00,
2013-10-04 03:25:00,70.7,67.0,29.90,SSE,158,6.0,9.6,88,0.00,,,0.00,WUHU216HW,2013-10-04 08:25:00,
2013-10-04 03:27:00,70.7,67.0,29.90,SSE,158,8.5,10.7,88,0.00,,,0.00,WUHU216HW,2013-10-04 08:27:00,
2013-10-04 03:28:00,70.9,67.1,29.90,SSE,158,8.1,10.7,88,0.00,,,0.00,WUHU216HW,2013-10-04 08:28:00,
2013-10-04 03:29:00,70.9,67.1,29.90,South,180,9.2,10.7,88,0.00,,,0.00,WUHU216HW,2013-10-04 08:29:00,
2013-10-04 03:30:00,70.9,67.1,29.90,SSE,158,8.1,10.7,88,0.00,,,0.00,WUHU216HW,2013-10-04 08:30:00,
2013-10-04 03:31:00,70.9,67.1,29.90,South,180,8.1,10.7,88,0.00,,,0.00,WUHU216HW,2013-10-04 08:31:00,
2013-10-04 03:32:00,70.9,67.1,29.90,South,180,7.4,10.7,88,0.00,,,0.00,WUHU216HW,2013-10-04 08:32:00,
2013-10-04 03:33:00,70.9,67.1,29.90,SSE,158,6.3,10.7,88,0.00,,,0.00,WUHU216HW,2013-10-04 08:33:00,
2013-10-04 03:34:00,70.9,67.1,29.90,SSE,158,5.4,10.7,88,0.00,,,0.00,WUHU216HW,2013-10-04 08:34:00,
2013-10-04 03:35:00,70.9,67.1,29.90,SSE,158,9.2,10.7,88,0.00,,,0.00,WUHU216HW,2013-10-04 08:35:00,
2013-10-04 03:36:00,70.9,67.1,29.90,South,180,7.6,10.7,88,0.00,,,0.00,WUHU216HW,2013-10-04 08:36:00,
2013-10-04 03:37:00,70.9,67.1,29.90,SSE,158,6.9,10.7,88,0.00,,,0.00,WUHU216HW,2013-10-04 08:37:00,
2013-10-04 03:39:00,70.9,67.1,29.90,SSE,158,8.5,10.7,88,0.00,,,0.00,WUHU216HW,2013-10-04 08:39:00,
2013-10-04 03:40:00,70.7,67.0,29.90,SSE,158,7.8,10.5,88,0.00,,,0.00,WUHU216HW,2013-10-04 08:40:00,
2013-10-04 03:41:00,70.9,67.1,29.90,SSE,158,9.8,11.2,88,0.00,,,0.00,WUHU216HW,2013-10-04 08:41:00,
2013-10-04 03:42:00,70.7,67.0,29.90,SSE,158,7.6,11.2,88,0.00,,,0.00,WUHU216HW,2013-10-04 08:42:00,
2013-10-04 03:43:00,70.9,67.1,29.90,SSE,158,5.4,11.2,88,0.00,,,0.00,WUHU216HW,2013-10-04 08:43:00,
2013-10-04 03:44:00,70.9,67.1,29.90,SSE,158,8.9,11.2,88,0.00,,,0.00,WUHU216HW,2013-10-04 08:44:00,
2013-10-04 03:45:00,70.9,67.1,29.90,SSE,158,7.2,11.2,88,0.00,,,0.00,WUHU216HW,2013-10-04 08:45:00,
2013-10-04 03:47:00,70.9,67.1,29.90,South,180,7.6,11.2,88,0.00,,,0.00,WUHU216HW,2013-10-04 08:47:00,
2013-10-04 03:48:00,70.9,67.1,29.90,SSE,158,7.6,11.2,88,0.00,,,0.00,WUHU216HW,2013-10-04 08:48:00,
2013-10-04 03:49:00,70.9,67.1,29.90,SE,135,6.3,11.2,88,0.00,,,0.00,WUHU216HW,2013-10-04 08:49:00,
2013-10-04 03:50:00,70.9,67.1,29.90,SSE,158,5.8,11.2,88,0.00,,,0.00,WUHU216HW,2013-10-04 08:50:00,
2013-10-04 03:51:00,70.7,67.0,29.90,SE,135,6.3,11.0,88,0.00,,,0.00,WUHU216HW,2013-10-04 08:51:00,
2013-10-04 03:52:00,70.7,67.0,29.90,SSE,158,7.4,11.0,88,0.00,,,0.00,WUHU216HW,2013-10-04 08:52:00,
2013-10-04 03:53:00,70.7,67.0,29.90,SSE,158,9.6,11.4,88,0.00,,,0.00,WUHU216HW,2013-10-04 08:53:00,
2013-10-04 03:55:00,70.7,67.0,29.90,SSE,158,7.4,11.4,88,0.00,,,0.00,WUHU216HW,2013-10-04 08:55:00,
2013-10-04 03:56:00,70.7,67.0,29.90,SE,135,8.3,11.4,88,0.00,,,0.00,WUHU216HW,2013-10-04 08:56:00,
2013-10-04 03:57:00,70.7,67.0,29.90,SSE,158,5.8,11.4,88,0.00,,,0.00,WUHU216HW,2013-10-04 08:57:00,
2013-10-04 03:59:00,70.7,67.0,29.90,SSE,158,8.5,11.4,88,0.00,,,0.00,WUHU216HW,2013-10-04 08:59:00,
2013-10-04 04:00:00,70.7,67.0,29.90,SE,135,8.7,11.4,88,0.00,,,0.00,WUHU216HW,2013-10-04 09:00:00,
2013-10-04 04:02:00,70.7,67.0,29.90,SSE,158,8.1,11.4,88,0.00,,,0.00,WUHU216HW,2013-10-04 09:02:00,
2013-10-04 04:04:00,70.7,67.0,29.90,South,180,11.2,11.4,88,0.00,,,0.00,WUHU216HW,2013-10-04 09:04:00,
2013-10-04 04:06:00,70.7,67.0,29.90,SSE,158,9.2,11.4,88,0.00,,,0.00,WUHU216HW,2013-10-04 09:06:00,
2013-10-04 04:07:00,70.7,67.0,29.89,SSE,158,8.1,11.4,88,0.00,,,0.00,WUHU216HW,2013-10-04 09:07:00,
2013-10-04 04:09:00,70.6,66.8,29.89,SSE,158,8.1,11.4,88,0.00,,,0.00,WUHU216HW,2013-10-04 09:09:00,
2013-10-04 04:10:00,70.6,66.8,29.89,SE,135,8.5,11.4,88,0.00,,,0.00,WUHU216HW,2013-10-04 09:10:00,
2013-10-04 04:11:00,70.6,66.8,29.90,SSE,158,9.6,11.4,88,0.00,,,0.00,WUHU216HW,2013-10-04 09:11:00,
2013-10-04 04:12:00,70.6,66.8,29.90,SSE,158,8.5,11.4,88,0.00,,,0.00,WUHU216HW,2013-10-04 09:12:00,
2013-10-04 04:13:00,70.6,66.8,29.89,SSE,158,7.2,11.4,88,0.00,,,0.00,WUHU216HW,2013-10-04 09:13:00,
2013-10-04 04:14:00,70.6,66.8,29.89,SSE,158,8.5,13.4,88,0.00,,,0.00,WUHU216HW,2013-10-04 09:14:00,
2013-10-04 04:15:00,70.6,66.8,29.90,South,180,9.2,13.4,88,0.00,,,0.00,WUHU216HW,2013-10-04 09:15:00,
2013-10-04 04:17:00,70.6,66.8,29.90,SSE,158,7.8,13.4,88,0.00,,,0.00,WUHU216HW,2013-10-04 09:17:00,
2013-10-04 04:18:00,70.6,66.8,29.89,SSE,158,7.6,13.4,88,0.00,,,0.00,WUHU216HW,2013-10-04 09:18:00,
2013-10-04 04:19:00,70.6,66.8,29.89,SSE,158,6.9,13.4,88,0.00,,,0.00,WUHU216HW,2013-10-04 09:19:00,
2013-10-04 04:21:00,70.4,66.6,29.90,SSE,158,6.7,13.4,88,0.00,,,0.00,WUHU216HW,2013-10-04 09:21:00,
2013-10-04 04:22:00,70.4,66.6,29.89,SSE,158,7.2,13.4,88,0.00,,,0.00,WUHU216HW,2013-10-04 09:22:00,
2013-10-04 04:23:00,70.4,67.0,29.90,SSE,158,8.9,13.4,89,0.00,,,0.00,WUHU216HW,2013-10-04 09:23:00,
2013-10-04 04:24:00,70.4,67.0,29.90,SSE,158,6.9,12.1,89,0.00,,,0.00,WUHU216HW,2013-10-04 09:24:00,
2013-10-04 04:25:00,70.4,67.0,29.90,SSE,158,7.4,10.7,89,0.00,,,0.00,WUHU216HW,2013-10-04 09:25:00,
2013-10-04 04:26:00,70.4,67.0,29.90,SSE,158,8.5,10.7,89,0.00,,,0.00,WUHU216HW,2013-10-04 09:26:00,
2013-10-04 04:27:00,70.4,67.0,29.90,South,180,7.6,10.3,89,0.00,,,0.00,WUHU216HW,2013-10-04 09:27:00,
2013-10-04 04:28:00,70.6,67.1,29.90,South,180,9.2,11.4,89,0.00,,,0.00,WUHU216HW,2013-10-04 09:28:00,
2013-10-04 04:29:00,70.6,66.8,29.90,SSE,158,7.4,11.4,88,0.00,,,0.00,WUHU216HW,2013-10-04 09:29:00,
2013-10-04 04:30:00,70.4,66.6,29.90,SE,135,7.4,11.4,88,0.00,,,0.00,WUHU216HW,2013-10-04 09:30:00,
2013-10-04 04:31:00,70.4,66.6,29.90,SSE,158,8.3,11.4,88,0.00,,,0.00,WUHU216HW,2013-10-04 09:31:00,
2013-10-04 04:32:00,70.4,66.6,29.90,SE,135,8.9,11.4,88,0.00,,,0.00,WUHU216HW,2013-10-04 09:32:00,
2013-10-04 04:33:00,70.6,66.8,29.90,SSE,158,8.1,11.4,88,0.00,,,0.00,WUHU216HW,2013-10-04 09:33:00,
2013-10-04 04:34:00,70.6,66.8,29.90,SSE,158,6.9,11.4,88,0.00,,,0.00,WUHU216HW,2013-10-04 09:34:00,
2013-10-04 04:36:00,70.4,67.0,29.90,SE,135,6.3,11.4,89,0.00,,,0.00,WUHU216HW,2013-10-04 09:36:00,
2013-10-04 04:37:00,70.4,66.6,29.90,SSE,158,5.4,11.4,88,0.00,,,0.00,WUHU216HW,2013-10-04 09:37:00,
2013-10-04 04:38:00,70.4,67.0,29.90,SSE,158,5.8,10.5,89,0.00,,,0.00,WUHU216HW,2013-10-04 09:38:00,
2013-10-04 04:39:00,70.2,66.8,29.90,SSE,158,7.2,10.5,89,0.00,,,0.00,WUHU216HW,2013-10-04 09:39:00,
2013-10-04 04:41:00,70.2,66.8,29.90,SSE,158,9.6,10.5,89,0.00,,,0.00,WUHU216HW,2013-10-04 09:41:00,
2013-10-04 04:43:00,70.4,67.0,29.90,SSE,158,6.3,9.8,89,0.00,,,0.00,WUHU216HW,2013-10-04 09:43:00,
2013-10-04 04:44:00,70.4,67.0,29.90,SSE,158,6.9,9.8,89,0.00,,,0.00,WUHU216HW,2013-10-04 09:44:00,
2013-10-04 04:45:00,70.4,67.0,29.90,SSE,158,10.5,10.5,89,0.00,,,0.00,WUHU216HW,2013-10-04 09:45:00,
2013-10-04 04:46:00,70.4,67.0,29.90,SSE,158,9.4,12.3,89,0.00,,,0.00,WUHU216HW,2013-10-04 09:46:00,
2013-10-04 04:48:00,70.4,67.0,29.90,SSE,158,9.2,12.3,89,0.00,,,0.00,WUHU216HW,2013-10-04 09:48:00,
2013-10-04 04:49:00,70.4,67.0,29.90,ESE,113,9.6,12.3,89,0.00,,,0.00,WUHU216HW,2013-10-04 09:49:00,
2013-10-04 04:50:00,70.4,67.0,29.90,SSE,158,6.7,12.3,89,0.00,,,0.00,WUHU216HW,2013-10-04 09:50:00,
2013-10-04 04:51:00,70.4,67.0,29.90,SSE,158,8.3,12.3,89,0.00,,,0.00,WUHU216HW,2013-10-04 09:51:00,
2013-10-04 04:53:00,70.4,67.0,29.90,SSE,158,6.9,12.3,89,0.00,,,0.00,WUHU216HW,2013-10-04 09:53:00,
2013-10-04 04:55:00,70.4,67.0,29.90,SSE,158,6.3,12.3,89,0.00,,,0.00,WUHU216HW,2013-10-04 09:55:00,
2013-10-04 04:56:00,70.2,66.8,29.90,SSE,158,5.6,11.0,89,0.00,,,0.00,WUHU216HW,2013-10-04 09:56:00,
2013-10-04 04:57:00,70.2,66.8,29.90,SSE,158,6.9,11.0,89,0.00,,,0.00,WUHU216HW,2013-10-04 09:57:00,
2013-10-04 04:58:00,70.2,66.8,29.90,SSE,158,9.2,10.5,89,0.00,,,0.00,WUHU216HW,2013-10-04 09:58:00,
2013-10-04 05:00:00,70.2,66.8,29.90,SSE,158,7.6,9.4,89,0.00,,,0.00,WUHU216HW,2013-10-04 10:00:00,
2013-10-04 05:01:00,70.2,66.8,29.90,SE,135,8.5,9.8,89,0.00,,,0.00,WUHU216HW,2013-10-04 10:01:00,
2013-10-04 05:02:00,70.2,66.8,29.90,SSE,158,8.5,9.8,89,0.00,,,0.00,WUHU216HW,2013-10-04 10:02:00,
2013-10-04 05:04:00,70.2,66.8,29.90,SSE,158,8.5,9.8,89,0.00,,,0.00,WUHU216HW,2013-10-04 10:04:00,
2013-10-04 05:05:00,70.4,67.0,29.90,SSE,158,8.7,9.8,89,0.00,,,0.00,WUHU216HW,2013-10-04 10:05:00,
2013-10-04 05:07:00,70.4,67.0,29.90,SSE,158,9.8,9.8,89,0.00,,,0.00,WUHU216HW,2013-10-04 10:07:00,
2013-10-04 05:08:00,70.2,66.8,29.90,South,180,6.9,9.8,89,0.00,,,0.00,WUHU216HW,2013-10-04 10:08:00,
2013-10-04 05:09:00,70.2,66.8,29.90,SSE,158,5.8,9.8,89,0.00,,,0.00,WUHU216HW,2013-10-04 10:09:00,
2013-10-04 05:11:00,70.2,66.8,29.90,SSE,158,6.9,9.8,89,0.00,,,0.00,WUHU216HW,2013-10-04 10:11:00,
2013-10-04 05:12:00,70.2,66.8,29.90,SSE,158,6.3,9.8,89,0.00,,,0.00,WUHU216HW,2013-10-04 10:12:00,
2013-10-04 05:13:00,70.2,66.8,29.90,SSE,158,8.3,9.8,89,0.00,,,0.00,WUHU216HW,2013-10-04 10:13:00,
2013-10-04 05:15:00,70.2,66.8,29.90,SSE,158,7.8,10.7,89,0.00,,,0.00,WUHU216HW,2013-10-04 10:15:00,
2013-10-04 05:16:00,70.2,66.8,29.90,SSE,158,11.4,11.4,89,0.00,,,0.00,WUHU216HW,2013-10-04 10:16:00,
2013-10-04 05:17:00,70.4,67.0,29.90,South,180,7.8,11.4,89,0.00,,,0.00,WUHU216HW,2013-10-04 10:17:00,
2013-10-04 05:18:00,70.4,67.0,29.90,SSE,158,9.2,11.4,89,0.00,,,0.00,WUHU216HW,2013-10-04 10:18:00,
2013-10-04 05:19:00,70.4,67.0,29.90,SSE,158,8.7,11.4,89,0.00,,,0.00,WUHU216HW,2013-10-04 10:19:00,
2013-10-04 05:20:00,70.4,67.0,29.90,SSE,158,9.8,11.4,89,0.00,,,0.00,WUHU216HW,2013-10-04 10:20:00,
2013-10-04 05:21:00,70.4,67.0,29.90,South,180,7.4,11.4,89,0.00,,,0.00,WUHU216HW,2013-10-04 10:21:00,
2013-10-04 05:23:00,70.4,67.0,29.90,SSE,158,8.7,11.4,89,0.00,,,0.00,WUHU216HW,2013-10-04 10:23:00,
2013-10-04 05:24:00,70.2,66.8,29.90,SSE,158,7.6,11.4,89,0.00,,,0.00,WUHU216HW,2013-10-04 10:24:00,
2013-10-04 05:25:00,70.2,66.8,29.90,SSE,158,8.1,11.4,89,0.00,,,0.00,WUHU216HW,2013-10-04 10:25:00,
2013-10-04 05:26:00,70.2,66.8,29.90,South,180,7.6,11.4,89,0.00,,,0.00,WUHU216HW,2013-10-04 10:26:00,
2013-10-04 05:28:00,70.2,66.8,29.90,SSE,158,6.3,11.0,89,0.00,,,0.00,WUHU216HW,2013-10-04 10:28:00,
2013-10-04 05:29:00,70.2,66.8,29.90,South,180,4.0,11.0,89,0.00,,,0.00,WUHU216HW,2013-10-04 10:29:00,
2013-10-04 05:30:00,70.2,66.8,29.90,South,180,6.3,11.0,89,0.00,,,0.00,WUHU216HW,2013-10-04 10:30:00,
2013-10-04 05:31:00,70.2,66.8,29.90,SSE,158,6.0,10.3,89,0.00,,,0.00,WUHU216HW,2013-10-04 10:31:00,
2013-10-04 05:32:00,70.2,67.1,29.90,SSE,158,8.1,10.3,90,0.00,,,0.00,WUHU216HW,2013-10-04 10:32:00,
2013-10-04 05:33:00,70.2,67.1,29.90,SSE,158,9.2,10.3,90,0.00,,,0.00,WUHU216HW,2013-10-04 10:33:00,
2013-10-04 05:34:00,70.2,67.1,29.90,SSE,158,7.6,9.8,90,0.00,,,0.00,WUHU216HW,2013-10-04 10:34:00,
2013-10-04 05:35:00,70.2,67.1,29.90,SSE,158,9.2,9.8,90,0.00,,,0.00,WUHU216HW,2013-10-04 10:35:00,
2013-10-04 05:36:00,70.2,66.8,29.90,SSE,158,7.8,9.8,89,0.00,,,0.00,WUHU216HW,2013-10-04 10:36:00,
2013-10-04 05:37:00,70.2,66.8,29.90,SSE,158,7.6,9.8,89,0.00,,,0.00,WUHU216HW,2013-10-04 10:37:00,
2013-10-04 05:38:00,70.2,66.8,29.90,SSE,158,7.6,9.8,89,0.00,,,0.00,WUHU216HW,2013-10-04 10:38:00,
2013-10-04 05:40:00,70.2,66.8,29.90,SSE,158,8.3,9.8,89,0.00,,,0.00,WUHU216HW,2013-10-04 10:40:00,
2013-10-04 05:41:00,70.2,67.1,29.90,South,180,6.9,9.8,90,0.00,,,0.00,WUHU216HW,2013-10-04 10:41:00,
2013-10-04 05:42:00,70.0,67.0,29.90,South,180,6.9,9.8,90,0.00,,,0.00,WUHU216HW,2013-10-04 10:42:00,
2013-10-04 05:44:00,70.0,67.0,29.90,SSE,158,7.2,9.8,90,0.00,,,0.00,WUHU216HW,2013-10-04 10:44:00,
2013-10-04 05:45:00,70.0,67.0,29.90,SSE,158,7.2,9.8,90,0.00,,,0.00,WUHU216HW,2013-10-04 10:45:00,
2013-10-04 05:47:00,70.0,67.0,29.90,SSE,158,4.9,9.8,90,0.00,,,0.00,WUHU216HW,2013-10-04 10:47:00,
2013-10-04 05:48:00,70.0,67.0,29.90,South,180,6.5,9.8,90,0.00,,,0.00,WUHU216HW,2013-10-04 10:48:00,
2013-10-04 05:49:00,70.0,67.0,29.91,South,180,6.5,9.8,90,0.00,,,0.00,WUHU216HW,2013-10-04 10:49:00,
2013-10-04 05:50:00,70.0,67.0,29.91,South,180,7.8,9.8,90,0.00,,,0.00,WUHU216HW,2013-10-04 10:50:00,
2013-10-04 05:51:00,70.0,67.0,29.90,SSE,158,8.5,9.8,90,0.00,,,0.00,WUHU216HW,2013-10-04 10:51:00,
2013-10-04 05:52:00,70.2,66.8,29.91,South,180,4.9,9.8,89,0.00,,,0.00,WUHU216HW,2013-10-04 10:52:00,
2013-10-04 05:53:00,70.2,67.1,29.91,SSE,158,6.5,9.8,90,0.00,,,0.00,WUHU216HW,2013-10-04 10:53:00,
2013-10-04 05:54:00,70.2,66.8,29.91,South,180,7.6,9.2,89,0.00,,,0.00,WUHU216HW,2013-10-04 10:54:00,
2013-10-04 05:56:00,70.2,66.8,29.90,SSE,158,6.3,9.2,89,0.00,,,0.00,WUHU216HW,2013-10-04 10:56:00,
2013-10-04 05:57:00,70.0,67.0,29.91,SSE,158,7.2,9.2,90,0.00,,,0.00,WUHU216HW,2013-10-04 10:57:00,
2013-10-04 05:58:00,70.0,66.6,29.91,SSE,158,7.6,8.5,89,0.00,,,0.00,WUHU216HW,2013-10-04 10:58:00,
2013-10-04 05:59:00,70.0,67.0,29.91,SSE,158,9.2,9.2,90,0.00,,,0.00,WUHU216HW,2013-10-04 10:59:00,
2013-10-04 06:01:00,70.0,66.6,29.91,SSE,158,8.1,9.2,89,0.00,,,0.00,WUHU216HW,2013-10-04 11:01:00,
2013-10-04 06:02:00,70.0,67.0,29.91,SSE,158,7.6,9.2,90,0.00,,,0.00,WUHU216HW,2013-10-04 11:02:00,
2013-10-04 06:03:00,70.0,67.0,29.91,SSE,158,6.5,9.2,90,0.00,,,0.00,WUHU216HW,2013-10-04 11:03:00,
2013-10-04 06:04:00,70.0,67.0,29.91,SSE,158,7.6,9.8,90,0.00,,,0.00,WUHU216HW,2013-10-04 11:04:00,
2013-10-04 06:05:00,70.0,67.0,29.91,SSE,158,7.6,9.8,90,0.00,,,0.00,WUHU216HW,2013-10-04 11:05:00,
2013-10-04 06:06:00,70.0,67.0,29.91,SSE,158,7.6,9.8,90,0.00,,,0.00,WUHU216HW,2013-10-04 11:06:00,
2013-10-04 06:07:00,70.0,67.0,29.91,SSE,158,9.8,9.8,90,0.00,,,0.00,WUHU216HW,2013-10-04 11:07:00,
2013-10-04 06:08:00,70.0,67.0,29.91,SSE,158,6.7,9.8,90,0.00,,,0.00,WUHU216HW,2013-10-04 11:08:00,
2013-10-04 06:09:00,70.0,67.0,29.91,SSE,158,7.6,9.8,90,0.00,,,0.00,WUHU216HW,2013-10-04 11:09:00,
2013-10-04 06:10:00,70.0,67.0,29.91,SSE,158,7.2,9.8,90,0.00,,,0.00,WUHU216HW,2013-10-04 11:10:00,
2013-10-04 06:11:00,70.0,67.0,29.91,SSE,158,7.2,9.8,90,0.00,,,0.00,WUHU216HW,2013-10-04 11:11:00,
2013-10-04 06:12:00,70.0,67.0,29.91,SSE,158,7.6,9.8,90,0.00,,,0.00,WUHU216HW,2013-10-04 11:12:00,
2013-10-04 06:14:00,70.0,66.6,29.91,SSE,158,10.7,10.7,89,0.00,,,0.00,WUHU216HW,2013-10-04 11:14:00,
2013-10-04 06:15:00,70.0,67.0,29.91,SE,135,7.8,10.7,90,0.00,,,0.00,WUHU216HW,2013-10-04 11:15:00,
2013-10-04 06:16:00,70.0,67.0,29.91,SSE,158,9.2,10.7,90,0.00,,,0.00,WUHU216HW,2013-10-04 11:16:00,
2013-10-04 06:17:00,70.0,67.0,29.91,South,180,7.2,10.7,90,0.00,,,0.00,WUHU216HW,2013-10-04 11:17:00,
2013-10-04 06:19:00,70.2,67.1,29.91,SSE,158,8.9,11.0,90,0.00,,,0.00,WUHU216HW,2013-10-04 11:19:00,
2013-10-04 06:20:00,70.2,66.8,29.91,South,180,6.0,11.0,89,0.00,,,0.00,WUHU216HW,2013-10-04 11:20:00,
2013-10-04 06:21:00,70.0,66.6,29.91,South,180,6.5,11.0,89,0.00,,,0.00,WUHU216HW,2013-10-04 11:21:00,
2013-10-04 06:23:00,70.0,66.6,29.91,SSE,158,6.0,11.0,89,0.00,,,0.00,WUHU216HW,2013-10-04 11:23:00,
2013-10-04 06:24:00,70.0,67.0,29.91,SE,135,5.4,11.0,90,0.00,,,0.00,WUHU216HW,2013-10-04 11:24:00,
2013-10-04 06:25:00,69.8,66.8,29.91,SSE,158,7.4,11.0,90,0.00,,,0.00,WUHU216HW,2013-10-04 11:25:00,
2013-10-04 06:26:00,69.8,66.8,29.91,South,180,7.2,11.0,90,0.00,,,0.00,WUHU216HW,2013-10-04 11:26:00,
2013-10-04 06:27:00,69.8,66.8,29.91,SSE,158,6.9,11.0,90,0.00,,,0.00,WUHU216HW,2013-10-04 11:27:00,
2013-10-04 06:28:00,69.8,66.8,29.91,SSE,158,8.5,11.0,90,0.00,,,0.00,WUHU216HW,2013-10-04 11:28:00,
2013-10-04 06:29:00,69.8,66.8,29.91,SSE,158,9.6,9.6,90,0.00,,,0.00,WUHU216HW,2013-10-04 11:29:00,
2013-10-04 06:31:00,70.0,67.0,29.91,South,180,7.2,9.6,90,0.00,,,0.00,WUHU216HW,2013-10-04 11:31:00,
2013-10-04 06:32:00,70.0,67.0,29.91,South,180,5.8,9.6,90,0.00,,,0.00,WUHU216HW,2013-10-04 11:32:00,
2013-10-04 06:33:00,70.0,67.0,29.91,SSE,158,6.7,9.6,90,0.00,,,0.00,WUHU216HW,2013-10-04 11:33:00,
2013-10-04 06:36:00,69.8,66.8,29.91,SSE,158,8.3,9.6,90,0.00,,,0.00,WUHU216HW,2013-10-04 11:36:00,
2013-10-04 06:37:00,69.8,66.8,29.91,SSE,158,8.9,9.6,90,0.00,,,0.00,WUHU216HW,2013-10-04 11:37:00,
2013-10-04 06:38:00,69.8,66.8,29.91,SSE,158,10.5,10.5,90,0.00,,,0.00,WUHU216HW,2013-10-04 11:38:00,
2013-10-04 06:41:00,69.8,66.8,29.91,SSE,158,7.8,10.5,90,0.00,,,0.00,WUHU216HW,2013-10-04 11:41:00,
2013-10-04 06:42:00,69.8,66.8,29.91,SSE,158,6.3,10.5,90,0.00,,,0.00,WUHU216HW,2013-10-04 11:42:00,
2013-10-04 06:43:00,69.8,66.8,29.91,SSE,158,7.8,10.5,90,0.00,,,0.00,WUHU216HW,2013-10-04 11:43:00,
2013-10-04 06:44:00,69.8,66.8,29.91,SSE,158,7.8,10.5,90,0.00,,,0.00,WUHU216HW,2013-10-04 11:44:00,
2013-10-04 06:47:00,69.8,66.8,29.91,SSE,158,10.3,10.5,90,0.00,,,0.00,WUHU216HW,2013-10-04 11:47:00,
2013-10-04 06:48:00,69.8,66.8,29.91,SSE,158,11.2,11.2,90,0.00,,,0.00,WUHU216HW,2013-10-04 11:48:00,
2013-10-04 06:49:00,69.8,66.8,29.91,SSE,158,11.2,11.2,90,0.00,,,0.00,WUHU216HW,2013-10-04 11:49:00,
2013-10-04 06:52:00,69.8,66.8,29.91,SE,135,8.3,11.2,90,0.00,,,0.00,WUHU216HW,2013-10-04 11:52:00,
2013-10-04 06:54:00,69.8,66.8,29.91,SSE,158,9.2,11.2,90,0.00,,,0.00,WUHU216HW,2013-10-04 11:54:00,
2013-10-04 06:57:00,69.8,66.8,29.91,SSE,158,6.9,11.2,90,0.00,,,0.00,WUHU216HW,2013-10-04 11:57:00,
2013-10-04 06:58:00,69.8,66.8,29.91,SSE,158,6.5,11.2,90,0.00,,,0.00,WUHU216HW,2013-10-04 11:58:00,
2013-10-04 06:59:00,69.8,66.8,29.91,South,180,6.3,10.5,90,0.00,,,0.00,WUHU216HW,2013-10-04 11:59:00,
2013-10-04 07:00:00,69.8,66.8,29.92,SSE,158,6.9,10.5,90,0.00,,,0.00,WUHU216HW,2013-10-04 12:00:00,
2013-10-04 07:03:00,69.8,66.8,29.92,SSE,158,10.3,10.5,90,0.00,,,0.00,WUHU216HW,2013-10-04 12:03:00,
2013-10-04 07:04:00,69.8,66.8,29.91,SSE,158,6.9,10.5,90,0.00,,,0.00,WUHU216HW,2013-10-04 12:04:00,
2013-10-04 07:05:00,69.8,66.8,29.91,SSE,158,8.3,10.5,90,0.00,,,0.00,WUHU216HW,2013-10-04 12:05:00,
2013-10-04 07:08:00,69.8,66.8,29.91,SSE,158,7.6,10.3,90,0.00,,,0.00,WUHU216HW,2013-10-04 12:08:00,
2013-10-04 07:09:00,69.8,66.8,29.91,SSE,158,10.7,10.7,90,0.00,,,0.00,WUHU216HW,2013-10-04 12:09:00,
2013-10-04 07:11:00,69.8,66.8,29.91,SSE,158,6.7,10.7,90,0.00,,,0.00,WUHU216HW,2013-10-04 12:11:00,
2013-10-04 07:13:00,69.8,66.8,29.91,South,180,6.9,10.7,90,0.00,,,0.00,WUHU216HW,2013-10-04 12:13:00,
2013-10-04 07:14:00,69.8,66.8,29.91,SSE,158,5.8,10.7,90,0.00,,,0.00,WUHU216HW,2013-10-04 12:14:00,
2013-10-04 07:15:00,69.8,66.8,29.91,South,180,7.4,10.7,90,0.00,,,0.00,WUHU216HW,2013-10-04 12:15:00,
2013-10-04 07:16:00,69.8,66.8,29.91,South,180,5.4,10.7,90,0.00,,,0.00,WUHU216HW,2013-10-04 12:16:00,
2013-10-04 07:18:00,69.7,66.6,29.91,South,180,6.0,10.7,90,0.00,,,0.00,WUHU216HW,2013-10-04 12:18:00,
2013-10-04 07:19:00,69.7,66.6,29.91,SE,135,6.3,10.7,90,0.00,,,0.00,WUHU216HW,2013-10-04 12:19:00,
2013-10-04 07:20:00,69.7,66.6,29.91,South,180,6.5,8.7,90,0.00,,,0.00,WUHU216HW,2013-10-04 12:20:00,
2013-10-04 07:21:00,69.8,66.8,29.91,SSE,158,5.4,7.8,90,0.00,,,0.00,WUHU216HW,2013-10-04 12:21:00,
2013-10-04 07:22:00,69.7,66.6,29.91,SSE,158,3.8,7.4,90,0.00,,,0.00,WUHU216HW,2013-10-04 12:22:00,
2013-10-04 07:23:00,69.7,66.6,29.91,South,180,6.5,7.4,90,0.00,,,0.00,WUHU216HW,2013-10-04 12:23:00,
2013-10-04 07:24:00,69.7,66.6,29.91,South,180,6.5,7.4,90,0.00,,,0.00,WUHU216HW,2013-10-04 12:24:00,
2013-10-04 07:25:00,69.7,66.6,29.91,South,180,6.5,7.4,90,0.00,,,0.00,WUHU216HW,2013-10-04 12:25:00,
2013-10-04 07:27:00,69.7,66.6,29.91,South,180,6.5,7.4,90,0.00,,,0.00,WUHU216HW,2013-10-04 12:27:00,
2013-10-04 07:28:00,69.7,66.6,29.91,South,180,6.5,7.4,90,0.00,,,0.00,WUHU216HW,2013-10-04 12:28:00,
2013-10-04 07:29:00,69.7,66.6,29.91,South,180,6.5,7.4,90,0.00,,,0.00,WUHU216HW,2013-10-04 12:29:00,
2013-10-04 07:30:00,69.7,66.6,29.91,South,180,6.5,7.4,90,0.00,,,0.00,WUHU216HW,2013-10-04 12:30:00,
2013-10-04 07:32:00,69.7,66.6,29.91,South,180,6.5,6.5,90,0.00,,,0.00,WUHU216HW,2013-10-04 12:32:00,
2013-10-04 08:00:00,71.6,67.2,29.92,SSE,158,6.5,6.5,86,0.00,,,0.00,WUHU216HW,2013-10-04 13:00:00,
2013-10-04 08:05:00,72.2,67.8,29.92,SSE,158,4.9,8.9,86,0.00,,,0.00,WUHU216HW,2013-10-04 13:05:00,
2013-10-04 08:10:00,72.4,67.6,29.93,South,180,4.0,8.9,85,0.00,,,0.00,WUHU216HW,2013-10-04 13:10:00,
2013-10-04 08:11:00,72.4,67.6,29.92,South,180,4.3,8.9,85,0.00,,,0.00,WUHU216HW,2013-10-04 13:11:00,
2013-10-04 08:15:00,72.7,68.0,29.93,SSE,158,4.7,7.4,85,0.00,,,0.00,WUHU216HW,2013-10-04 13:15:00,
2013-10-04 08:16:00,72.7,68.0,29.93,South,180,4.7,7.4,85,0.00,,,0.00,WUHU216HW,2013-10-04 13:16:00,
2013-10-04 08:20:00,73.1,68.3,29.93,SSW,203,5.4,8.9,85,0.00,,,0.00,WUHU216HW,2013-10-04 13:20:00,
2013-10-04 08:21:00,73.3,68.5,29.93,South,180,7.2,8.9,85,0.00,,,0.00,WUHU216HW,2013-10-04 13:21:00,
2013-10-04 08:22:00,73.3,68.5,29.93,SSW,203,6.5,8.9,85,0.00,,,0.00,WUHU216HW,2013-10-04 13:22:00,
2013-10-04 08:25:00,73.4,68.7,29.93,South,180,5.1,8.9,85,0.00,,,0.00,WUHU216HW,2013-10-04 13:25:00,
2013-10-04 08:26:00,73.4,68.7,29.93,SSW,203,7.4,8.9,85,0.00,,,0.00,WUHU216HW,2013-10-04 13:26:00,
2013-10-04 08:27:00,73.4,68.7,29.93,SSW,203,6.5,8.3,85,0.00,,,0.00,WUHU216HW,2013-10-04 13:27:00,
2013-10-04 08:29:00,73.3,68.5,29.93,SSW,203,5.1,8.3,85,0.00,,,0.00,WUHU216HW,2013-10-04 13:29:00,
2013-10-04 08:31:00,73.3,68.5,29.93,South,180,4.5,8.3,85,0.00,,,0.00,WUHU216HW,2013-10-04 13:31:00,
2013-10-04 08:32:00,73.3,68.5,29.93,South,180,4.5,8.3,85,0.00,,,0.00,WUHU216HW,2013-10-04 13:32:00,
2013-10-04 08:34:00,73.3,68.5,29.93,South,180,4.5,8.3,85,0.00,,,0.00,WUHU216HW,2013-10-04 13:34:00,
2013-10-04 08:36:00,73.3,68.5,29.93,South,180,4.5,8.3,85,0.00,,,0.00,WUHU216HW,2013-10-04 13:36:00,
2013-10-04 08:37:00,73.3,68.5,29.93,South,180,4.5,8.1,85,0.00,,,0.00,WUHU216HW,2013-10-04 13:37:00,
2013-10-04 08:38:00,73.3,68.5,29.93,South,180,4.5,8.1,85,0.00,,,0.00,WUHU216HW,2013-10-04 13:38:00,
2013-10-04 08:39:00,73.3,68.5,29.93,South,180,4.5,6.5,85,0.00,,,0.00,WUHU216HW,2013-10-04 13:39:00,
2013-10-04 09:00:00,73.8,68.7,29.93,SSE,158,8.3,8.3,84,0.00,,,0.00,WUHU216HW,2013-10-04 14:00:00,
2013-10-04 09:05:00,74.2,69.0,29.93,SSE,158,9.6,10.5,84,0.00,,,0.00,WUHU216HW,2013-10-04 14:05:00,
2013-10-04 09:06:00,74.3,68.9,29.93,SSE,158,11.4,12.3,83,0.00,,,0.00,WUHU216HW,2013-10-04 14:06:00,
2013-10-04 09:10:00,74.7,69.0,29.93,SE,135,9.6,15.4,82,0.00,,,0.00,WUHU216HW,2013-10-04 14:10:00,
2013-10-04 09:11:00,74.9,69.1,29.93,South,180,11.6,15.4,82,0.00,,,0.00,WUHU216HW,2013-10-04 14:11:00,
2013-10-04 09:15:00,75.2,69.1,29.93,SSE,158,8.5,15.4,81,0.00,,,0.00,WUHU216HW,2013-10-04 14:15:00,
2013-10-04 09:16:00,75.2,69.1,29.93,SSE,158,12.1,15.4,81,0.00,,,0.00,WUHU216HW,2013-10-04 14:16:00,
2013-10-04 09:17:00,75.4,69.3,29.93,SSE,158,12.8,12.8,81,0.00,,,0.00,WUHU216HW,2013-10-04 14:17:00,
2013-10-04 09:20:00,75.8,69.6,29.93,SSW,203,7.8,12.8,81,0.00,,,0.00,WUHU216HW,2013-10-04 14:20:00,
2013-10-04 09:21:00,75.8,69.6,29.93,South,180,12.1,12.8,81,0.00,,,0.00,WUHU216HW,2013-10-04 14:21:00,
2013-10-04 09:22:00,76.0,69.8,29.93,SSW,203,9.8,12.8,81,0.00,,,0.00,WUHU216HW,2013-10-04 14:22:00,
2013-10-04 09:25:00,76.3,69.8,29.93,SSE,158,10.5,12.8,80,0.00,,,0.00,WUHU216HW,2013-10-04 14:25:00,
2013-10-04 09:26:00,76.3,69.8,29.93,SSW,203,9.2,12.8,80,0.00,,,0.00,WUHU216HW,2013-10-04 14:26:00,
2013-10-04 09:27:00,76.3,69.4,29.93,South,180,7.6,12.8,79,0.00,,,0.00,WUHU216HW,2013-10-04 14:27:00,
2013-10-04 09:31:00,76.9,69.5,29.94,SSW,203,10.5,14.3,78,0.00,,,0.00,WUHU216HW,2013-10-04 14:31:00,
2013-10-04 09:32:00,76.9,69.9,29.93,South,180,7.2,14.3,79,0.00,,,0.00,WUHU216HW,2013-10-04 14:32:00,
2013-10-04 09:36:00,77.2,69.4,29.93,SSE,158,11.9,14.3,77,0.00,,,0.00,WUHU216HW,2013-10-04 14:36:00,
2013-10-04 09:37:00,77.2,69.9,29.93,SSW,203,11.6,14.3,78,0.00,,,0.00,WUHU216HW,2013-10-04 14:37:00,
2013-10-04 09:38:00,77.4,70.0,29.93,SSW,203,10.5,14.3,78,0.00,,,0.00,WUHU216HW,2013-10-04 14:38:00,
2013-10-04 09:41:00,77.4,70.0,29.94,SSE,158,7.2,12.8,78,0.00,,,0.00,WUHU216HW,2013-10-04 14:41:00,
2013-10-04 09:42:00,77.6,70.1,29.94,SSE,158,10.5,13.4,78,0.00,,,0.00,WUHU216HW,2013-10-04 14:42:00,
2013-10-04 09:43:00,77.6,70.1,29.94,SSE,158,10.5,13.4,78,0.00,,,0.00,WUHU216HW,2013-10-04 14:43:00,
2013-10-04 09:46:00,77.6,69.8,29.94,South,180,12.1,17.0,77,0.00,,,0.00,WUHU216HW,2013-10-04 14:46:00,
2013-10-04 09:48:00,77.8,69.9,29.94,SSW,203,9.8,17.0,77,0.00,,,0.00,WUHU216HW,2013-10-04 14:48:00,
2013-10-04 09:51:00,78.1,69.9,29.94,South,180,13.2,17.0,76,0.00,,,0.00,WUHU216HW,2013-10-04 14:51:00,
2013-10-04 09:53:00,78.1,69.5,29.94,SW,225,9.2,17.0,75,0.00,,,0.00,WUHU216HW,2013-10-04 14:53:00,
2013-10-04 09:54:00,78.1,69.9,29.94,South,180,9.2,17.0,76,0.00,,,0.00,WUHU216HW,2013-10-04 14:54:00,
2013-10-04 09:57:00,78.3,70.1,29.94,South,180,13.0,16.3,76,0.00,,,0.00,WUHU216HW,2013-10-04 14:57:00,
2013-10-04 09:59:00,78.1,69.5,29.94,SSW,203,10.7,16.3,75,0.00,,,0.00,WUHU216HW,2013-10-04 14:59:00,
2013-10-04 10:00:00,78.1,69.5,29.94,SSE,158,15.2,16.3,75,0.00,,,0.00,WUHU216HW,2013-10-04 15:00:00,
2013-10-04 10:02:00,77.8,69.2,29.94,SSW,203,11.2,16.3,75,0.00,,,0.00,WUHU216HW,2013-10-04 15:02:00,
2013-10-04 10:04:00,77.8,69.6,29.94,South,180,14.3,17.4,76,0.00,,,0.00,WUHU216HW,2013-10-04 15:04:00,
2013-10-04 10:05:00,77.8,69.6,29.94,SSE,158,9.6,17.4,76,0.00,,,0.00,WUHU216HW,2013-10-04 15:05:00,
2013-10-04 10:07:00,78.1,69.9,29.94,West,270,7.2,17.4,76,0.00,,,0.00,WUHU216HW,2013-10-04 15:07:00,
2013-10-04 10:09:00,78.5,70.3,29.94,South,180,9.2,17.4,76,0.00,,,0.00,WUHU216HW,2013-10-04 15:09:00,
2013-10-04 10:10:00,78.5,69.8,29.94,South,180,11.2,17.4,75,0.00,,,0.00,WUHU216HW,2013-10-04 15:10:00,
2013-10-04 10:12:00,78.1,69.5,29.94,South,180,11.2,18.6,75,0.00,,,0.00,WUHU216HW,2013-10-04 15:12:00,
2013-10-04 10:14:00,77.9,69.8,29.94,SSE,158,12.8,18.6,76,0.00,,,0.00,WUHU216HW,2013-10-04 15:14:00,
2013-10-04 10:15:00,77.9,69.8,29.94,South,180,9.8,18.6,76,0.00,,,0.00,WUHU216HW,2013-10-04 15:15:00,
2013-10-04 10:17:00,78.1,69.9,29.94,South,180,9.2,18.6,76,0.00,,,0.00,WUHU216HW,2013-10-04 15:17:00,
2013-10-04 10:20:00,78.3,69.7,29.94,South,180,8.3,18.6,75,0.00,,,0.00,WUHU216HW,2013-10-04 15:20:00,
2013-10-04 10:22:00,78.3,69.7,29.94,SSW,203,12.1,14.1,75,0.00,,,0.00,WUHU216HW,2013-10-04 15:22:00,
2013-10-04 10:23:00,78.5,69.8,29.94,South,180,11.2,14.1,75,0.00,,,0.00,WUHU216HW,2013-10-04 15:23:00,
2013-10-04 10:25:00,78.8,70.2,29.94,SSW,203,7.4,14.1,75,0.00,,,0.00,WUHU216HW,2013-10-04 15:25:00,
2013-10-04 10:26:00,79.0,70.4,29.94,SSW,203,10.5,14.1,75,0.00,,,0.00,WUHU216HW,2013-10-04 15:26:00,
2013-10-04 10:27:00,79.2,70.2,29.94,South,180,7.6,14.3,74,0.00,,,0.00,WUHU216HW,2013-10-04 15:27:00,
2013-10-04 10:28:00,79.2,70.6,29.94,SE,135,8.7,14.3,75,0.00,,,0.00,WUHU216HW,2013-10-04 15:28:00,
2013-10-04 10:30:00,78.8,69.4,29.94,South,180,12.8,17.9,73,0.00,,,0.00,WUHU216HW,2013-10-04 15:30:00,
2013-10-04 10:31:00,78.8,69.9,29.94,South,180,12.8,17.9,74,0.00,,,0.00,WUHU216HW,2013-10-04 15:31:00,
2013-10-04 10:33:00,78.8,69.9,29.94,South,180,9.8,17.9,74,0.00,,,0.00,WUHU216HW,2013-10-04 15:33:00,
2013-10-04 10:34:00,79.0,70.0,29.94,SE,135,9.8,17.9,74,0.00,,,0.00,WUHU216HW,2013-10-04 15:34:00,
2013-10-04 10:35:00,79.2,70.6,29.94,South,180,9.6,17.9,75,0.00,,,0.00,WUHU216HW,2013-10-04 15:35:00,
2013-10-04 10:36:00,79.6,70.1,29.94,SE,135,9.8,17.9,73,0.00,,,0.00,WUHU216HW,2013-10-04 15:36:00,
2013-10-04 10:38:00,79.7,70.3,29.94,SSW,203,8.1,17.9,73,0.00,,,0.00,WUHU216HW,2013-10-04 15:38:00,
2013-10-04 10:39:00,79.9,70.5,29.94,SSW,203,10.3,15.9,73,0.00,,,0.00,WUHU216HW,2013-10-04 15:39:00,
2013-10-04 10:40:00,79.9,69.7,29.94,SSE,158,13.4,15.0,71,0.00,,,0.00,WUHU216HW,2013-10-04 15:40:00,
2013-10-04 10:42:00,79.7,69.9,29.94,SSE,158,10.1,17.2,72,0.00,,,0.00,WUHU216HW,2013-10-04 15:42:00,
2013-10-04 10:43:00,79.7,70.3,29.94,South,180,6.9,17.2,73,0.00,,,0.00,WUHU216HW,2013-10-04 15:43:00,
2013-10-04 10:44:00,79.7,69.5,29.94,South,180,16.6,17.2,71,0.00,,,0.00,WUHU216HW,2013-10-04 15:44:00,
2013-10-04 10:45:00,79.2,69.8,29.94,SSE,158,9.4,17.2,73,0.00,,,0.00,WUHU216HW,2013-10-04 15:45:00,
2013-10-04 10:47:00,79.2,69.8,29.94,SSE,158,10.5,17.2,73,0.00,,,0.00,WUHU216HW,2013-10-04 15:47:00,
2013-10-04 10:48:00,79.6,70.1,29.94,South,180,7.8,17.2,73,0.00,,,0.00,WUHU216HW,2013-10-04 15:48:00,
2013-10-04 10:49:00,79.6,70.1,29.94,SSE,158,8.7,17.2,73,0.00,,,0.00,WUHU216HW,2013-10-04 15:49:00,
2013-10-04 10:50:00,79.9,70.9,29.94,South,180,7.8,17.2,74,0.00,,,0.00,WUHU216HW,2013-10-04 15:50:00,
2013-10-04 10:51:00,80.1,70.3,29.94,South,180,12.1,17.0,72,0.00,,,0.00,WUHU216HW,2013-10-04 15:51:00,
2013-10-04 10:52:00,80.3,70.5,29.94,South,180,9.2,16.8,72,0.00,,,0.00,WUHU216HW,2013-10-04 15:52:00,
2013-10-04 10:53:00,80.3,70.0,29.94,SSE,158,16.3,16.8,71,0.00,,,0.00,WUHU216HW,2013-10-04 15:53:00,
2013-10-04 10:54:00,80.1,69.8,29.94,SSE,158,13.9,16.8,71,0.00,,,0.00,WUHU216HW,2013-10-04 15:54:00,
2013-10-04 10:55:00,79.9,69.7,29.94,SSE,158,13.9,16.8,71,0.00,,,0.00,WUHU216HW,2013-10-04 15:55:00,
2013-10-04 10:56:00,79.7,69.9,29.94,SSW,203,7.2,16.3,72,0.00,,,0.00,WUHU216HW,2013-10-04 15:56:00,
2013-10-04 10:57:00,79.7,69.9,29.94,SSW,203,10.7,16.3,72,0.00,,,0.00,WUHU216HW,2013-10-04 15:57:00,
2013-10-04 10:59:00,79.7,69.9,29.94,South,180,8.1,16.3,72,0.00,,,0.00,WUHU216HW,2013-10-04 15:59:00,
2013-10-04 11:00:00,79.7,69.9,29.94,SSW,203,12.1,16.3,72,0.00,,,0.00,WUHU216HW,2013-10-04 16:00:00,
2013-10-04 11:01:00,79.9,69.7,29.94,South,180,11.9,16.3,71,0.00,,,0.00,WUHU216HW,2013-10-04 16:01:00,
2013-10-04 11:03:00,80.3,70.0,29.94,SSW,203,10.5,16.3,71,0.00,,,0.00,WUHU216HW,2013-10-04 16:03:00,
2013-10-04 11:04:00,80.3,70.0,29.94,SSW,203,13.4,15.7,71,0.00,,,0.00,WUHU216HW,2013-10-04 16:04:00,
2013-10-04 11:05:00,79.9,69.7,29.94,SSW,203,8.9,13.4,71,0.00,,,0.00,WUHU216HW,2013-10-04 16:05:00,
2013-10-04 11:06:00,79.9,69.7,29.94,South,180,9.6,13.4,71,0.00,,,0.00,WUHU216HW,2013-10-04 16:06:00,
2013-10-04 11:08:00,79.9,70.1,29.94,SSW,203,6.0,13.4,72,0.00,,,0.00,WUHU216HW,2013-10-04 16:08:00,
2013-10-04 11:09:00,79.9,70.1,29.94,SSW,203,10.5,13.4,72,0.00,,,0.00,WUHU216HW,2013-10-04 16:09:00,
2013-10-04 11:10:00,79.9,70.1,29.94,SSE,158,13.2,13.4,72,0.00,,,0.00,WUHU216HW,2013-10-04 16:10:00,
2013-10-04 11:11:00,80.1,69.8,29.94,South,180,9.8,13.4,71,0.00,,,0.00,WUHU216HW,2013-10-04 16:11:00,
2013-10-04 11:14:00,81.2,70.5,29.94,SSE,158,13.4,13.4,70,0.00,,,0.00,WUHU216HW,2013-10-04 16:14:00,
2013-10-04 11:15:00,81.2,70.5,29.94,SSE,158,11.4,15.7,70,0.00,,,0.00,WUHU216HW,2013-10-04 16:15:00,
2013-10-04 11:17:00,81.4,70.7,29.94,SE,135,9.2,15.7,70,0.00,,,0.00,WUHU216HW,2013-10-04 16:17:00,
2013-10-04 11:19:00,81.7,70.6,29.94,SSW,203,8.5,15.7,69,0.00,,,0.00,WUHU216HW,2013-10-04 16:19:00,
2013-10-04 11:20:00,82.1,70.8,29.94,SSW,203,8.7,15.7,69,0.00,,,0.00,WUHU216HW,2013-10-04 16:20:00,
2013-10-04 11:21:00,82.1,70.8,29.94,South,180,10.5,15.7,69,0.00,,,0.00,WUHU216HW,2013-10-04 16:21:00,
2013-10-04 11:23:00,82.3,71.0,29.94,SSE,158,11.6,15.7,69,0.00,,,0.00,WUHU216HW,2013-10-04 16:23:00,
2013-10-04 11:24:00,82.1,69.9,29.94,SSE,158,12.8,15.7,67,0.00,,,0.00,WUHU216HW,2013-10-04 16:24:00,
2013-10-04 11:26:00,81.7,70.1,29.94,South,180,17.9,17.9,68,0.00,,,0.00,WUHU216HW,2013-10-04 16:26:00,
2013-10-04 11:27:00,81.5,69.9,29.94,SSE,158,15.0,17.9,68,0.00,,,0.00,WUHU216HW,2013-10-04 16:27:00,
2013-10-04 11:28:00,81.4,70.2,29.94,South,180,11.6,17.9,69,0.00,,,0.00,WUHU216HW,2013-10-04 16:28:00,
2013-10-04 11:29:00,81.4,69.8,29.94,SSW,203,15.2,17.9,68,0.00,,,0.00,WUHU216HW,2013-10-04 16:29:00,
2013-10-04 11:30:00,81.5,69.9,29.94,South,180,10.5,17.9,68,0.00,,,0.00,WUHU216HW,2013-10-04 16:30:00,
2013-10-04 11:31:00,81.7,70.6,29.94,SSW,203,12.8,17.9,69,0.00,,,0.00,WUHU216HW,2013-10-04 16:31:00,
2013-10-04 11:32:00,81.5,69.9,29.94,SSE,158,12.1,17.9,68,0.00,,,0.00,WUHU216HW,2013-10-04 16:32:00,
2013-10-04 11:33:00,81.2,70.0,29.94,South,180,14.3,17.9,69,0.00,,,0.00,WUHU216HW,2013-10-04 16:33:00,
2013-10-04 11:34:00,81.0,69.9,29.94,South,180,13.0,17.9,69,0.00,,,0.00,WUHU216HW,2013-10-04 16:34:00,
2013-10-04 11:35:00,81.0,70.4,29.94,SSW,203,5.8,17.9,70,0.00,,,0.00,WUHU216HW,2013-10-04 16:35:00,
2013-10-04 11:36:00,81.2,70.5,29.94,SSW,203,6.3,16.1,70,0.00,,,0.00,WUHU216HW,2013-10-04 16:36:00,
2013-10-04 11:37:00,81.2,69.6,29.94,SSE,158,10.7,16.1,68,0.00,,,0.00,WUHU216HW,2013-10-04 16:37:00,
2013-10-04 11:39:00,81.0,69.0,29.94,South,180,14.3,16.1,67,0.00,,,0.00,WUHU216HW,2013-10-04 16:39:00,
2013-10-04 11:40:00,80.8,69.3,29.94,SSW,203,15.7,16.1,68,0.00,,,0.00,WUHU216HW,2013-10-04 16:40:00,
2013-10-04 11:41:00,80.8,69.8,29.94,SSE,158,13.2,16.6,69,0.00,,,0.00,WUHU216HW,2013-10-04 16:41:00,
2013-10-04 11:43:00,80.6,69.6,29.94,SSE,158,15.7,17.0,69,0.00,,,0.00,WUHU216HW,2013-10-04 16:43:00,
2013-10-04 11:44:00,80.5,68.9,29.94,SSW,203,14.1,17.0,68,0.00,,,0.00,WUHU216HW,2013-10-04 16:44:00,
2013-10-04 11:45:00,80.5,69.4,29.94,South,180,12.1,17.0,69,0.00,,,0.00,WUHU216HW,2013-10-04 16:45:00,
2013-10-04 11:46:00,80.5,69.4,29.94,SE,135,8.5,17.0,69,0.00,,,0.00,WUHU216HW,2013-10-04 16:46:00,
2013-10-04 11:48:00,81.2,70.0,29.94,SSE,158,16.8,17.0,69,0.00,,,0.00,WUHU216HW,2013-10-04 16:48:00,
2013-10-04 11:49:00,81.5,70.8,29.94,South,180,10.5,17.0,70,0.00,,,0.00,WUHU216HW,2013-10-04 16:49:00,
2013-10-04 11:51:00,81.7,71.0,29.94,SW,225,10.1,17.0,70,0.00,,,0.00,WUHU216HW,2013-10-04 16:51:00,
2013-10-04 11:54:00,82.3,70.6,29.94,SSE,158,8.5,16.8,68,0.00,,,0.00,WUHU216HW,2013-10-04 16:54:00,
2013-10-04 11:55:00,82.3,69.7,29.94,South,180,14.5,16.8,66,0.00,,,0.00,WUHU216HW,2013-10-04 16:55:00,
2013-10-04 11:56:00,82.4,69.8,29.94,South,180,10.1,16.8,66,0.00,,,0.00,WUHU216HW,2013-10-04 16:56:00,
2013-10-04 11:57:00,82.4,69.8,29.94,South,180,13.4,16.8,66,0.00,,,0.00,WUHU216HW,2013-10-04 16:57:00,
2013-10-04 12:00:00,82.8,70.7,29.94,SSW,203,11.6,14.5,67,0.00,,,0.00,WUHU216HW,2013-10-04 17:00:00,
2013-10-04 12:01:00,83.2,71.0,29.94,South,180,9.8,14.5,67,0.00,,,0.00,WUHU216HW,2013-10-04 17:01:00,
2013-10-04 12:02:00,83.0,70.4,29.94,SE,135,13.9,17.2,66,0.00,,,0.00,WUHU216HW,2013-10-04 17:02:00,
2013-10-04 12:05:00,81.9,69.4,29.95,SSE,158,16.1,19.0,66,0.00,,,0.00,WUHU216HW,2013-10-04 17:05:00,
2013-10-04 12:06:00,81.7,69.2,29.94,SSW,203,9.8,19.0,66,0.00,,,0.00,WUHU216HW,2013-10-04 17:06:00,
2013-10-04 12:07:00,81.7,69.7,29.95,SSW,203,14.5,19.0,67,0.00,,,0.00,WUHU216HW,2013-10-04 17:07:00,
2013-10-04 12:08:00,81.9,70.3,29.94,South,180,8.1,19.0,68,0.00,,,0.00,WUHU216HW,2013-10-04 17:08:00,
2013-10-04 12:10:00,82.4,69.8,29.94,SSW,203,9.2,19.0,66,0.00,,,0.00,WUHU216HW,2013-10-04 17:10:00,
2013-10-04 12:11:00,82.3,69.7,29.94,SSE,158,11.4,19.0,66,0.00,,,0.00,WUHU216HW,2013-10-04 17:11:00,
2013-10-04 12:12:00,82.1,69.9,29.94,SSE,158,10.5,19.0,67,0.00,,,0.00,WUHU216HW,2013-10-04 17:12:00,
2013-10-04 12:14:00,82.1,69.9,29.94,South,180,8.3,16.1,67,0.00,,,0.00,WUHU216HW,2013-10-04 17:14:00,
2013-10-04 12:15:00,82.4,70.7,29.94,South,180,7.8,14.5,68,0.00,,,0.00,WUHU216HW,2013-10-04 17:15:00,
2013-10-04 12:16:00,82.8,71.1,29.94,SSE,158,8.7,14.5,68,0.00,,,0.00,WUHU216HW,2013-10-04 17:16:00,
2013-10-04 12:17:00,83.0,70.8,29.94,SSE,158,8.5,13.6,67,0.00,,,0.00,WUHU216HW,2013-10-04 17:17:00,
2013-10-04 12:18:00,83.0,70.8,29.94,SE,135,9.8,13.6,67,0.00,,,0.00,WUHU216HW,2013-10-04 17:18:00,
2013-10-04 12:19:00,83.0,70.4,29.94,South,180,11.6,16.3,66,0.00,,,0.00,WUHU216HW,2013-10-04 17:19:00,
2013-10-04 12:20:00,83.0,69.9,29.94,SSE,158,14.3,16.3,65,0.00,,,0.00,WUHU216HW,2013-10-04 17:20:00,
2013-10-04 12:21:00,83.0,70.4,29.94,SSE,158,8.5,16.3,66,0.00,,,0.00,WUHU216HW,2013-10-04 17:21:00,
2013-10-04 12:23:00,83.0,69.9,29.94,South,180,11.0,16.3,65,0.00,,,0.00,WUHU216HW,2013-10-04 17:23:00,
2013-10-04 12:25:00,82.8,70.7,29.94,South,180,10.1,16.3,67,0.00,,,0.00,WUHU216HW,2013-10-04 17:25:00,
2013-10-04 12:26:00,83.0,70.4,29.94,South,180,10.1,16.3,66,0.00,,,0.00,WUHU216HW,2013-10-04 17:26:00,
2013-10-04 12:27:00,83.2,70.6,29.94,SSE,158,9.2,16.3,66,0.00,,,0.00,WUHU216HW,2013-10-04 17:27:00,
2013-10-04 12:28:00,83.2,70.6,29.94,SSE,158,9.2,16.3,66,0.00,,,0.00,WUHU216HW,2013-10-04 17:28:00,
2013-10-04 12:30:00,83.9,70.8,29.94,SW,225,6.9,14.1,65,0.00,,,0.00,WUHU216HW,2013-10-04 17:30:00,
2013-10-04 12:31:00,84.1,70.6,29.94,SSW,203,14.3,14.3,64,0.00,,,0.00,WUHU216HW,2013-10-04 17:31:00,
2013-10-04 12:32:00,84.1,71.0,29.94,SSW,203,14.3,14.3,65,0.00,,,0.00,WUHU216HW,2013-10-04 17:32:00,
2013-10-04 12:33:00,84.2,70.7,29.94,South,180,14.3,14.3,64,0.00,,,0.00,WUHU216HW,2013-10-04 17:33:00,
2013-10-04 12:34:00,84.2,70.7,29.94,SSE,158,11.9,14.3,64,0.00,,,0.00,WUHU216HW,2013-10-04 17:34:00,
2013-10-04 12:36:00,84.1,70.6,29.94,South,180,8.7,14.3,64,0.00,,,0.00,WUHU216HW,2013-10-04 17:36:00,
2013-10-04 12:37:00,84.1,70.6,29.94,SSE,158,10.3,14.3,64,0.00,,,0.00,WUHU216HW,2013-10-04 17:37:00,
2013-10-04 12:59:00,82.6,69.6,29.94,SW,225,9.4,16.3,65,0.00,,,0.00,WUHU216HW,2013-10-04 17:59:00,
2013-10-04 13:00:00,82.4,69.8,29.94,South,180,6.9,16.3,66,0.00,,,0.00,WUHU216HW,2013-10-04 18:00:00,
2013-10-04 13:03:00,82.6,70.0,29.93,WSW,248,8.1,12.8,66,0.00,,,0.00,WUHU216HW,2013-10-04 18:03:00,
2013-10-04 13:04:00,82.8,70.2,29.93,SSW,203,6.7,11.9,66,0.00,,,0.00,WUHU216HW,2013-10-04 18:04:00,
2013-10-04 13:05:00,83.0,70.8,29.93,SSW,203,6.3,11.9,67,0.00,,,0.00,WUHU216HW,2013-10-04 18:05:00,
2013-10-04 13:06:00,83.3,70.7,29.93,SSW,203,6.9,11.9,66,0.00,,,0.00,WUHU216HW,2013-10-04 18:06:00,
2013-10-04 13:08:00,83.7,70.7,29.93,SSE,158,6.3,11.9,65,0.00,,,0.00,WUHU216HW,2013-10-04 18:08:00,
2013-10-04 13:09:00,83.7,71.1,29.93,SSE,158,5.4,11.9,66,0.00,,,0.00,WUHU216HW,2013-10-04 18:09:00,
2013-10-04 13:10:00,83.5,70.9,29.93,SSW,203,4.5,11.9,66,0.00,,,0.00,WUHU216HW,2013-10-04 18:10:00,
2013-10-04 13:11:00,83.5,70.5,29.93,South,180,6.3,10.7,65,0.00,,,0.00,WUHU216HW,2013-10-04 18:11:00,
2013-10-04 13:14:00,83.9,70.8,29.93,SE,135,10.5,14.5,65,0.00,,,0.00,WUHU216HW,2013-10-04 18:14:00,
2013-10-04 13:16:00,84.1,70.6,29.93,South,180,7.8,14.5,64,0.00,,,0.00,WUHU216HW,2013-10-04 18:16:00,
2013-10-04 13:17:00,84.1,70.1,29.93,SW,225,8.5,14.5,63,0.00,,,0.00,WUHU216HW,2013-10-04 18:17:00,
2013-10-04 13:19:00,84.2,70.7,29.93,SSW,203,10.3,14.5,64,0.00,,,0.00,WUHU216HW,2013-10-04 18:19:00,
2013-10-04 13:21:00,84.1,70.6,29.93,South,180,5.4,14.5,64,0.00,,,0.00,WUHU216HW,2013-10-04 18:21:00,
2013-10-04 13:22:00,84.4,70.9,29.92,SSW,203,8.9,14.5,64,0.00,,,0.00,WUHU216HW,2013-10-04 18:22:00,
2013-10-04 13:23:00,84.6,71.1,29.92,SSW,203,6.5,14.5,64,0.00,,,0.00,WUHU216HW,2013-10-04 18:23:00,
2013-10-04 13:24:00,84.2,70.3,29.92,South,180,6.9,14.1,63,0.00,,,0.00,WUHU216HW,2013-10-04 18:24:00,
2013-10-04 13:27:00,84.1,70.6,29.92,SSE,158,8.5,13.2,64,0.00,,,0.00,WUHU216HW,2013-10-04 18:27:00,
2013-10-04 13:28:00,84.2,69.8,29.92,SSE,158,14.1,14.1,62,0.00,,,0.00,WUHU216HW,2013-10-04 18:28:00,
2013-10-04 13:29:00,84.1,70.6,29.92,SSE,158,13.4,15.4,64,0.00,,,0.00,WUHU216HW,2013-10-04 18:29:00,
2013-10-04 13:32:00,84.6,70.7,29.92,SSE,158,15.4,17.4,63,0.00,,,0.00,WUHU216HW,2013-10-04 18:32:00,
2013-10-04 13:33:00,84.6,71.1,29.92,SSE,158,10.7,17.4,64,0.00,,,0.00,WUHU216HW,2013-10-04 18:33:00,
2013-10-04 13:34:00,84.6,70.2,29.92,South,180,10.5,17.4,62,0.00,,,0.00,WUHU216HW,2013-10-04 18:34:00,
2013-10-04 13:38:00,85.1,70.7,29.92,South,180,7.4,17.4,62,0.00,,,0.00,WUHU216HW,2013-10-04 18:38:00,
2013-10-04 13:39:00,85.1,70.7,29.92,South,180,6.3,17.4,62,0.00,,,0.00,WUHU216HW,2013-10-04 18:39:00,
2013-10-04 13:43:00,85.3,70.8,29.92,SSW,203,10.1,13.9,62,0.00,,,0.00,WUHU216HW,2013-10-04 18:43:00,
2013-10-04 13:44:00,85.1,70.2,29.92,South,180,7.6,12.1,61,0.00,,,0.00,WUHU216HW,2013-10-04 18:44:00,
2013-10-04 13:45:00,85.1,71.1,29.92,South,180,5.8,12.1,63,0.00,,,0.00,WUHU216HW,2013-10-04 18:45:00,
2013-10-04 13:48:00,85.3,69.9,29.92,South,180,8.3,12.1,60,0.00,,,0.00,WUHU216HW,2013-10-04 18:48:00,
2013-10-04 13:49:00,85.3,69.4,29.92,SSW,203,10.5,12.1,59,0.00,,,0.00,WUHU216HW,2013-10-04 18:49:00,
2013-10-04 13:50:00,85.0,69.6,29.92,SSW,203,5.4,12.8,60,0.00,,,0.00,WUHU216HW,2013-10-04 18:50:00,
2013-10-04 13:54:00,84.8,69.8,29.92,South,180,7.8,12.8,61,0.00,,,0.00,WUHU216HW,2013-10-04 18:54:00,
2013-10-04 13:55:00,85.0,70.5,29.91,SSW,203,13.9,13.9,62,0.00,,,0.00,WUHU216HW,2013-10-04 18:55:00,
2013-10-04 13:56:00,85.0,69.6,29.92,SSW,203,13.0,13.9,60,0.00,,,0.00,WUHU216HW,2013-10-04 18:56:00,
2013-10-04 13:59:00,85.1,69.8,29.91,South,180,15.4,15.4,60,0.00,,,0.00,WUHU216HW,2013-10-04 18:59:00,
2013-10-04 14:00:00,85.1,69.8,29.91,South,180,13.4,15.4,60,0.00,,,0.00,WUHU216HW,2013-10-04 19:00:00,
2013-10-04 14:02:00,85.0,70.0,29.91,SSW,203,12.1,15.4,61,0.00,,,0.00,WUHU216HW,2013-10-04 19:02:00,
2013-10-04 14:04:00,85.0,69.6,29.91,South,180,12.5,15.4,60,0.00,,,0.00,WUHU216HW,2013-10-04 19:04:00,
2013-10-04 14:05:00,85.1,69.8,29.91,South,180,7.8,15.4,60,0.00,,,0.00,WUHU216HW,2013-10-04 19:05:00,
2013-10-04 14:07:00,85.5,69.6,29.91,SSE,158,11.0,15.4,59,0.00,,,0.00,WUHU216HW,2013-10-04 19:07:00,
2013-10-04 14:09:00,85.7,70.2,29.91,SSW,203,6.5,15.4,60,0.00,,,0.00,WUHU216HW,2013-10-04 19:09:00,
2013-10-04 14:11:00,85.9,69.8,29.91,South,180,6.7,12.5,59,0.00,,,0.00,WUHU216HW,2013-10-04 19:11:00,
2013-10-04 14:12:00,86.0,70.6,29.91,SSE,158,6.5,12.5,60,0.00,,,0.00,WUHU216HW,2013-10-04 19:12:00,
2013-10-04 14:13:00,86.4,70.9,29.91,SSE,158,7.8,12.5,60,0.00,,,0.00,WUHU216HW,2013-10-04 19:13:00,
2013-10-04 14:14:00,86.4,70.4,29.91,South,180,8.7,11.4,59,0.00,,,0.00,WUHU216HW,2013-10-04 19:14:00,
2013-10-04 14:16:00,86.2,70.2,29.91,SSE,158,11.4,11.4,59,0.00,,,0.00,WUHU216HW,2013-10-04 19:16:00,
2013-10-04 14:17:00,86.0,70.0,29.91,South,180,13.4,13.4,59,0.00,,,0.00,WUHU216HW,2013-10-04 19:17:00,
2013-10-04 14:18:00,85.7,70.8,29.91,South,180,9.4,14.3,61,0.00,,,0.00,WUHU216HW,2013-10-04 19:18:00,
2013-10-04 14:19:00,85.3,70.4,29.91,South,180,9.2,14.3,61,0.00,,,0.00,WUHU216HW,2013-10-04 19:19:00,
2013-10-04 14:21:00,85.7,71.2,29.90,SSW,203,9.4,14.3,62,0.00,,,0.00,WUHU216HW,2013-10-04 19:21:00,
2013-10-04 14:22:00,86.0,70.6,29.91,SSW,203,8.9,14.3,60,0.00,,,0.00,WUHU216HW,2013-10-04 19:22:00,
2013-10-04 14:23:00,86.4,70.9,29.91,SE,135,9.4,14.3,60,0.00,,,0.00,WUHU216HW,2013-10-04 19:23:00,
2013-10-04 14:24:00,86.6,70.0,29.91,South,180,12.3,14.3,58,0.00,,,0.00,WUHU216HW,2013-10-04 19:24:00,
2013-10-04 14:25:00,86.4,69.3,29.91,SSE,158,11.6,14.3,57,0.00,,,0.00,WUHU216HW,2013-10-04 19:25:00,
2013-10-04 14:26:00,86.4,69.8,29.91,WNW,293,6.9,14.3,58,0.00,,,0.00,WUHU216HW,2013-10-04 19:26:00,
2013-10-04 14:27:00,86.4,69.8,29.91,South,180,12.8,14.3,58,0.00,,,0.00,WUHU216HW,2013-10-04 19:27:00,
2013-10-04 14:29:00,86.4,69.8,29.91,SSE,158,10.5,13.6,58,0.00,,,0.00,WUHU216HW,2013-10-04 19:29:00,
2013-10-04 14:30:00,86.2,69.7,29.90,SE,135,14.1,14.1,58,0.00,,,0.00,WUHU216HW,2013-10-04 19:30:00,
2013-10-04 14:32:00,85.9,69.8,29.90,SSE,158,11.9,14.1,59,0.00,,,0.00,WUHU216HW,2013-10-04 19:32:00,
2013-10-04 14:34:00,85.0,69.0,29.90,SSE,158,13.2,15.2,59,0.00,,,0.00,WUHU216HW,2013-10-04 19:34:00,
2013-10-04 14:35:00,84.6,68.8,29.90,SW,225,9.4,15.2,59,0.00,,,0.00,WUHU216HW,2013-10-04 19:35:00,
2013-10-04 14:37:00,84.6,68.8,29.90,SSE,158,11.4,15.2,59,0.00,,,0.00,WUHU216HW,2013-10-04 19:37:00,
2013-10-04 14:39:00,84.8,69.8,29.90,South,180,9.4,15.2,61,0.00,,,0.00,WUHU216HW,2013-10-04 19:39:00,
2013-10-04 14:40:00,84.8,69.8,29.90,South,180,9.4,15.2,61,0.00,,,0.00,WUHU216HW,2013-10-04 19:40:00,
2013-10-04 14:42:00,84.4,69.1,29.90,South,180,9.2,13.4,60,0.00,,,0.00,WUHU216HW,2013-10-04 19:42:00,
2013-10-04 14:44:00,84.1,69.2,29.90,SSW,203,11.6,13.2,61,0.00,,,0.00,WUHU216HW,2013-10-04 19:44:00,
2013-10-04 14:45:00,83.9,69.0,29.90,South,180,6.3,13.2,61,0.00,,,0.00,WUHU216HW,2013-10-04 19:45:00,
2013-10-04 14:46:00,83.9,69.0,29.90,South,180,6.3,13.2,61,0.00,,,0.00,WUHU216HW,2013-10-04 19:46:00,
2013-10-04 14:47:00,83.7,69.3,29.90,South,180,7.8,13.2,62,0.00,,,0.00,WUHU216HW,2013-10-04 19:47:00,
2013-10-04 14:48:00,83.7,69.3,29.90,SSE,158,9.2,13.2,62,0.00,,,0.00,WUHU216HW,2013-10-04 19:48:00,
2013-10-04 14:50:00,83.7,69.3,29.90,SSE,158,8.5,13.2,62,0.00,,,0.00,WUHU216HW,2013-10-04 19:50:00,
2013-10-04 14:51:00,83.7,68.9,29.90,SSE,158,12.1,13.0,61,0.00,,,0.00,WUHU216HW,2013-10-04 19:51:00,
2013-10-04 14:52:00,83.7,69.8,29.90,SSE,158,6.5,13.0,63,0.00,,,0.00,WUHU216HW,2013-10-04 19:52:00,
2013-10-04 14:53:00,83.9,69.9,29.90,South,180,6.5,13.0,63,0.00,,,0.00,WUHU216HW,2013-10-04 19:53:00,
2013-10-04 14:55:00,84.1,68.8,29.89,SSE,158,10.5,13.0,60,0.00,,,0.00,WUHU216HW,2013-10-04 19:55:00,
2013-10-04 14:56:00,83.9,68.6,29.89,South,180,11.2,13.0,60,0.00,,,0.00,WUHU216HW,2013-10-04 19:56:00,
2013-10-04 14:57:00,83.5,68.7,29.89,SE,135,9.2,13.4,61,0.00,,,0.00,WUHU216HW,2013-10-04 19:57:00,
2013-10-04 14:58:00,83.5,68.7,29.89,SSE,158,13.6,13.6,61,0.00,,,0.00,WUHU216HW,2013-10-04 19:58:00,
2013-10-04 15:02:00,83.9,70.4,29.89,SSE,158,6.3,13.6,64,0.00,,,0.00,WUHU216HW,2013-10-04 20:02:00,
2013-10-04 15:03:00,84.1,70.1,29.89,South,180,8.3,13.6,63,0.00,,,0.00,WUHU216HW,2013-10-04 20:03:00,
2013-10-04 15:04:00,84.4,70.0,29.89,SSE,158,8.9,13.6,62,0.00,,,0.00,WUHU216HW,2013-10-04 20:04:00,
2013-10-04 15:07:00,85.5,70.6,29.89,South,180,8.3,13.6,61,0.00,,,0.00,WUHU216HW,2013-10-04 20:07:00,
2013-10-04 15:08:00,85.7,70.2,29.89,SE,135,10.5,13.6,60,0.00,,,0.00,WUHU216HW,2013-10-04 20:08:00,
2013-10-04 15:09:00,86.0,70.6,29.89,South,180,11.6,12.1,60,0.00,,,0.00,WUHU216HW,2013-10-04 20:09:00,
2013-10-04 15:13:00,86.2,69.2,29.89,SSE,158,10.1,13.6,57,0.00,,,0.00,WUHU216HW,2013-10-04 20:13:00,
2013-10-04 15:14:00,86.0,69.0,29.89,South,180,9.4,13.6,57,0.00,,,0.00,WUHU216HW,2013-10-04 20:14:00,
2013-10-04 15:18:00,85.7,68.1,29.89,SSE,158,14.3,15.0,56,0.00,,,0.00,WUHU216HW,2013-10-04 20:18:00,
2013-10-04 15:19:00,85.3,68.3,29.89,South,180,11.6,15.0,57,0.00,,,0.00,WUHU216HW,2013-10-04 20:19:00,
2013-10-04 15:20:00,85.1,68.7,29.89,South,180,8.7,15.0,58,0.00,,,0.00,WUHU216HW,2013-10-04 20:20:00,
2013-10-04 15:23:00,85.0,68.1,29.89,SSW,203,11.6,15.9,57,0.00,,,0.00,WUHU216HW,2013-10-04 20:23:00,
2013-10-04 15:24:00,84.8,67.9,29.89,SSW,203,11.6,15.9,57,0.00,,,0.00,WUHU216HW,2013-10-04 20:24:00,
2013-10-04 15:25:00,84.8,67.9,29.89,South,180,9.2,15.9,57,0.00,,,0.00,WUHU216HW,2013-10-04 20:25:00,
2013-10-04 15:29:00,85.0,68.1,29.89,SSE,158,12.1,15.9,57,0.00,,,0.00,WUHU216HW,2013-10-04 20:29:00,
2013-10-04 15:30:00,85.1,68.7,29.89,South,180,9.8,15.9,58,0.00,,,0.00,WUHU216HW,2013-10-04 20:30:00,
2013-10-04 15:32:00,85.1,68.7,29.89,SSE,158,13.4,15.9,58,0.00,,,0.00,WUHU216HW,2013-10-04 20:32:00,
2013-10-04 15:34:00,84.6,67.7,29.89,SSE,158,14.3,15.0,57,0.00,,,0.00,WUHU216HW,2013-10-04 20:34:00,
2013-10-04 15:35:00,84.2,67.9,29.89,SSE,158,11.4,14.8,58,0.00,,,0.00,WUHU216HW,2013-10-04 20:35:00,
2013-10-04 15:37:00,84.1,68.2,29.89,South,180,12.1,14.8,59,0.00,,,0.00,WUHU216HW,2013-10-04 20:37:00,
2013-10-04 15:39:00,84.2,68.4,29.89,South,180,13.4,14.8,59,0.00,,,0.00,WUHU216HW,2013-10-04 20:39:00,
2013-10-04 15:40:00,84.4,68.6,29.89,SSE,158,8.5,14.8,59,0.00,,,0.00,WUHU216HW,2013-10-04 20:40:00,
2013-10-04 15:41:00,84.4,68.6,29.89,SSE,158,9.8,14.8,59,0.00,,,0.00,WUHU216HW,2013-10-04 20:41:00,
2013-10-04 15:42:00,84.8,69.0,29.89,SE,135,8.5,14.8,59,0.00,,,0.00,WUHU216HW,2013-10-04 20:42:00,
2013-10-04 15:44:00,84.8,69.8,29.89,SSE,158,13.6,14.8,61,0.00,,,0.00,WUHU216HW,2013-10-04 20:44:00,
2013-10-04 15:45:00,84.8,69.0,29.89,SSE,158,12.3,14.8,59,0.00,,,0.00,WUHU216HW,2013-10-04 20:45:00,
2013-10-04 15:46:00,85.0,69.6,29.89,SE,135,9.2,14.8,60,0.00,,,0.00,WUHU216HW,2013-10-04 20:46:00,
2013-10-04 15:48:00,84.6,68.8,29.89,South,180,12.8,13.9,59,0.00,,,0.00,WUHU216HW,2013-10-04 20:48:00,
2013-10-04 15:49:00,84.2,68.4,29.89,SE,135,15.9,15.9,59,0.00,,,0.00,WUHU216HW,2013-10-04 20:49:00,
2013-10-04 15:50:00,84.1,68.2,29.89,SSE,158,15.4,15.9,59,0.00,,,0.00,WUHU216HW,2013-10-04 20:50:00,
2013-10-04 15:51:00,83.5,67.7,29.89,SSE,158,11.4,15.9,59,0.00,,,0.00,WUHU216HW,2013-10-04 20:51:00,
2013-10-04 15:54:00,83.3,67.0,29.89,SSE,158,15.0,15.9,58,0.00,,,0.00,WUHU216HW,2013-10-04 20:54:00,
2013-10-04 15:55:00,83.7,68.4,29.89,SSE,158,12.1,15.9,60,0.00,,,0.00,WUHU216HW,2013-10-04 20:55:00,
2013-10-04 15:56:00,84.1,68.2,29.89,South,180,12.8,15.9,59,0.00,,,0.00,WUHU216HW,2013-10-04 20:56:00,
2013-10-04 15:59:00,85.0,68.6,29.88,SE,135,11.4,15.9,58,0.00,,,0.00,WUHU216HW,2013-10-04 20:59:00,
2013-10-04 16:00:00,85.1,68.7,29.88,SSE,158,6.9,15.7,58,0.00,,,0.00,WUHU216HW,2013-10-04 21:00:00,
2013-10-04 16:01:00,85.1,68.2,29.88,South,180,10.5,15.7,57,0.00,,,0.00,WUHU216HW,2013-10-04 21:01:00,
2013-10-04 16:02:00,85.0,67.5,29.88,SSE,158,10.7,15.7,56,0.00,,,0.00,WUHU216HW,2013-10-04 21:02:00,
2013-10-04 16:04:00,84.4,68.0,29.88,SSE,158,11.2,15.7,58,0.00,,,0.00,WUHU216HW,2013-10-04 21:04:00,
2013-10-04 16:05:00,84.1,66.7,29.88,South,180,13.4,17.0,56,0.00,,,0.00,WUHU216HW,2013-10-04 21:05:00,
2013-10-04 16:06:00,83.9,67.1,29.88,SSE,158,10.7,17.0,57,0.00,,,0.00,WUHU216HW,2013-10-04 21:06:00,
2013-10-04 16:07:00,83.7,67.3,29.88,SSE,158,12.8,17.0,58,0.00,,,0.00,WUHU216HW,2013-10-04 21:07:00,
2013-10-04 16:09:00,83.9,67.1,29.88,SSE,158,15.0,17.0,57,0.00,,,0.00,WUHU216HW,2013-10-04 21:09:00,
2013-10-04 16:10:00,84.1,67.7,29.88,SSE,158,13.4,17.0,58,0.00,,,0.00,WUHU216HW,2013-10-04 21:10:00,
2013-10-04 16:12:00,84.6,67.7,29.88,SE,135,12.8,17.0,57,0.00,,,0.00,WUHU216HW,2013-10-04 21:12:00,
2013-10-04 16:15:00,85.5,68.5,29.88,SSE,158,8.5,17.0,57,0.00,,,0.00,WUHU216HW,2013-10-04 21:15:00,
2013-10-04 16:16:00,86.0,68.5,29.88,SSE,158,8.9,15.0,56,0.00,,,0.00,WUHU216HW,2013-10-04 21:16:00,
2013-10-04 16:17:00,86.2,68.1,29.88,South,180,8.9,15.0,55,0.00,,,0.00,WUHU216HW,2013-10-04 21:17:00,
2013-10-04 16:18:00,86.2,68.1,29.88,SSE,158,11.4,15.0,55,0.00,,,0.00,WUHU216HW,2013-10-04 21:18:00,
2013-10-04 16:20:00,86.2,68.7,29.88,SSE,158,11.4,13.9,56,0.00,,,0.00,WUHU216HW,2013-10-04 21:20:00,
2013-10-04 16:21:00,86.0,68.5,29.88,SSE,158,11.4,12.8,56,0.00,,,0.00,WUHU216HW,2013-10-04 21:21:00,
2013-10-04 16:22:00,85.9,68.9,29.88,SE,135,8.9,12.8,57,0.00,,,0.00,WUHU216HW,2013-10-04 21:22:00,
2013-10-04 16:23:00,85.9,68.9,29.88,SE,135,8.9,12.8,57,0.00,,,0.00,WUHU216HW,2013-10-04 21:23:00,
2013-10-04 16:25:00,85.3,68.3,29.88,SSE,158,10.5,13.4,57,0.00,,,0.00,WUHU216HW,2013-10-04 21:25:00,
2013-10-04 16:26:00,85.0,68.1,29.88,SSE,158,8.9,13.4,57,0.00,,,0.00,WUHU216HW,2013-10-04 21:26:00,
2013-10-04 16:27:00,84.6,67.7,29.88,SE,135,15.9,15.9,57,0.00,,,0.00,WUHU216HW,2013-10-04 21:27:00,
2013-10-04 16:28:00,83.9,67.1,29.88,SE,135,17.7,17.7,57,0.00,,,0.00,WUHU216HW,2013-10-04 21:28:00,
2013-10-04 16:31:00,83.2,66.8,29.88,South,180,12.8,17.7,58,0.00,,,0.00,WUHU216HW,2013-10-04 21:31:00,
2013-10-04 16:32:00,83.2,67.3,29.88,SSE,158,10.7,17.7,59,0.00,,,0.00,WUHU216HW,2013-10-04 21:32:00,
2013-10-04 16:33:00,83.2,67.3,29.88,SSW,203,15.0,17.7,59,0.00,,,0.00,WUHU216HW,2013-10-04 21:33:00,
2013-10-04 16:34:00,83.2,67.3,29.88,SSE,158,13.9,17.7,59,0.00,,,0.00,WUHU216HW,2013-10-04 21:34:00,
2013-10-04 16:36:00,83.0,67.1,29.88,South,180,11.0,17.7,59,0.00,,,0.00,WUHU216HW,2013-10-04 21:36:00,
2013-10-04 16:37:00,83.0,67.7,29.89,SSE,158,8.7,17.7,60,0.00,,,0.00,WUHU216HW,2013-10-04 21:37:00,
2013-10-04 16:38:00,82.8,67.0,29.89,SSE,158,7.6,16.1,59,0.00,,,0.00,WUHU216HW,2013-10-04 21:38:00,
2013-10-04 16:39:00,82.8,67.5,29.89,South,180,11.4,16.1,60,0.00,,,0.00,WUHU216HW,2013-10-04 21:39:00,
2013-10-04 16:40:00,82.8,67.5,29.89,SSE,158,10.5,16.1,60,0.00,,,0.00,WUHU216HW,2013-10-04 21:40:00,
2013-10-04 16:42:00,82.4,67.1,29.88,SE,135,9.6,15.0,60,0.00,,,0.00,WUHU216HW,2013-10-04 21:42:00,
2013-10-04 16:43:00,82.4,67.1,29.88,SE,135,10.1,15.0,60,0.00,,,0.00,WUHU216HW,2013-10-04 21:43:00,
2013-10-04 16:44:00,82.3,67.0,29.88,South,180,12.3,15.0,60,0.00,,,0.00,WUHU216HW,2013-10-04 21:44:00,
2013-10-04 16:45:00,82.1,67.2,29.88,SSE,158,7.6,15.0,61,0.00,,,0.00,WUHU216HW,2013-10-04 21:45:00,
2013-10-04 16:46:00,82.1,67.2,29.88,SSE,158,7.6,15.0,61,0.00,,,0.00,WUHU216HW,2013-10-04 21:46:00,
2013-10-04 16:47:00,82.1,67.7,29.88,SE,135,8.5,15.0,62,0.00,,,0.00,WUHU216HW,2013-10-04 21:47:00,
2013-10-04 16:48:00,81.9,67.2,29.88,SSE,158,7.4,13.4,61,0.00,,,0.00,WUHU216HW,2013-10-04 21:48:00,
2013-10-04 16:50:00,81.9,67.2,29.89,SSE,158,6.0,13.4,61,0.00,,,0.00,WUHU216HW,2013-10-04 21:50:00,
2013-10-04 16:51:00,81.9,67.6,29.89,SSE,158,6.7,13.4,62,0.00,,,0.00,WUHU216HW,2013-10-04 21:51:00,
2013-10-04 16:52:00,81.7,67.0,29.89,SSE,158,10.5,13.4,61,0.00,,,0.00,WUHU216HW,2013-10-04 21:52:00,
2013-10-04 16:53:00,81.7,67.0,29.89,SE,135,8.9,15.2,61,0.00,,,0.00,WUHU216HW,2013-10-04 21:53:00,
2013-10-04 16:56:00,81.5,67.2,29.89,SSE,158,9.8,15.2,62,0.00,,,0.00,WUHU216HW,2013-10-04 21:56:00,
2013-10-04 16:57:00,81.4,66.6,29.88,SSE,158,11.4,15.2,61,0.00,,,0.00,WUHU216HW,2013-10-04 21:57:00,
2013-10-04 16:58:00,81.2,66.9,29.88,SE,135,9.2,15.2,62,0.00,,,0.00,WUHU216HW,2013-10-04 21:58:00,
2013-10-04 17:01:00,81.2,66.9,29.88,SSE,158,12.1,15.2,62,0.00,,,0.00,WUHU216HW,2013-10-04 22:01:00,
2013-10-04 17:02:00,81.2,66.9,29.89,SE,135,8.9,15.2,62,0.00,,,0.00,WUHU216HW,2013-10-04 22:02:00,
2013-10-04 17:03:00,81.2,66.9,29.88,SE,135,11.0,12.8,62,0.00,,,0.00,WUHU216HW,2013-10-04 22:03:00,
2013-10-04 17:04:00,81.0,66.8,29.88,SE,135,12.3,12.8,62,0.00,,,0.00,WUHU216HW,2013-10-04 22:04:00,
2013-10-04 17:06:00,81.0,66.8,29.89,SSE,158,9.4,12.8,62,0.00,,,0.00,WUHU216HW,2013-10-04 22:06:00,
2013-10-04 17:07:00,81.0,66.3,29.88,SSE,158,14.3,14.3,61,0.00,,,0.00,WUHU216HW,2013-10-04 22:07:00,
2013-10-04 17:08:00,81.0,66.8,29.88,SE,135,7.6,14.3,62,0.00,,,0.00,WUHU216HW,2013-10-04 22:08:00,
2013-10-04 17:09:00,81.0,66.8,29.89,SSE,158,9.4,14.3,62,0.00,,,0.00,WUHU216HW,2013-10-04 22:09:00,
2013-10-04 17:12:00,80.6,66.4,29.88,South,180,11.4,14.3,62,0.00,,,0.00,WUHU216HW,2013-10-04 22:12:00,
2013-10-04 17:13:00,80.6,66.4,29.88,SSE,158,9.2,14.3,62,0.00,,,0.00,WUHU216HW,2013-10-04 22:13:00,
2013-10-04 17:15:00,80.6,66.9,29.88,SSE,158,10.5,14.3,63,0.00,,,0.00,WUHU216HW,2013-10-04 22:15:00,
2013-10-04 17:17:00,80.6,66.9,29.88,SSE,158,11.4,11.4,63,0.00,,,0.00,WUHU216HW,2013-10-04 22:17:00,
2013-10-04 17:18:00,80.5,66.2,29.88,SSE,158,11.6,13.2,62,0.00,,,0.00,WUHU216HW,2013-10-04 22:18:00,
2013-10-04 17:20:00,80.5,66.7,29.88,South,180,11.6,14.3,63,0.00,,,0.00,WUHU216HW,2013-10-04 22:20:00,
2013-10-04 17:21:00,80.5,66.7,29.89,South,180,9.2,14.3,63,0.00,,,0.00,WUHU216HW,2013-10-04 22:21:00,
2013-10-04 17:23:00,80.3,66.5,29.88,SSE,158,11.0,14.3,63,0.00,,,0.00,WUHU216HW,2013-10-04 22:23:00,
2013-10-04 17:25:00,80.3,67.0,29.88,SSE,158,7.6,14.3,64,0.00,,,0.00,WUHU216HW,2013-10-04 22:25:00,
2013-10-04 17:27:00,80.3,67.0,29.88,South,180,6.3,14.3,64,0.00,,,0.00,WUHU216HW,2013-10-04 22:27:00,
2013-10-04 17:28:00,80.3,66.5,29.88,SSE,158,11.0,14.3,63,0.00,,,0.00,WUHU216HW,2013-10-04 22:28:00,
2013-10-04 17:29:00,80.3,66.5,29.88,SSE,158,9.8,14.3,63,0.00,,,0.00,WUHU216HW,2013-10-04 22:29:00,
2013-10-04 17:31:00,80.3,67.0,29.88,SSE,158,8.5,11.6,64,0.00,,,0.00,WUHU216HW,2013-10-04 22:31:00,
2013-10-04 17:32:00,80.1,66.8,29.88,SSE,158,8.1,11.0,64,0.00,,,0.00,WUHU216HW,2013-10-04 22:32:00,
2013-10-04 17:33:00,80.3,67.0,29.88,ESE,113,7.6,11.0,64,0.00,,,0.00,WUHU216HW,2013-10-04 22:33:00,
2013-10-04 17:34:00,80.1,66.8,29.88,SSE,158,9.6,11.0,64,0.00,,,0.00,WUHU216HW,2013-10-04 22:34:00,
2013-10-04 17:35:00,80.1,66.8,29.88,SE,135,7.4,11.4,64,0.00,,,0.00,WUHU216HW,2013-10-04 22:35:00,
2013-10-04 17:37:00,80.1,67.2,29.88,SSE,158,7.2,11.4,65,0.00,,,0.00,WUHU216HW,2013-10-04 22:37:00,
2013-10-04 17:38:00,80.1,67.2,29.88,SSE,158,5.6,11.4,65,0.00,,,0.00,WUHU216HW,2013-10-04 22:38:00,
2013-10-04 17:39:00,80.1,67.2,29.88,ESE,113,6.5,11.4,65,0.00,,,0.00,WUHU216HW,2013-10-04 22:39:00,
2013-10-04 17:41:00,80.1,66.8,29.88,SSE,158,6.3,11.4,64,0.00,,,0.00,WUHU216HW,2013-10-04 22:41:00,
2013-10-04 17:42:00,80.1,67.2,29.88,SSE,158,7.2,11.4,65,0.00,,,0.00,WUHU216HW,2013-10-04 22:42:00,
2013-10-04 17:43:00,80.1,67.2,29.88,SE,135,6.3,11.4,65,0.00,,,0.00,WUHU216HW,2013-10-04 22:43:00,
2013-10-04 17:44:00,79.9,67.1,29.88,SSE,158,7.4,11.4,65,0.00,,,0.00,WUHU216HW,2013-10-04 22:44:00,
2013-10-04 17:47:00,79.9,67.1,29.88,SSE,158,11.4,11.4,65,0.00,,,0.00,WUHU216HW,2013-10-04 22:47:00,
2013-10-04 17:48:00,79.7,67.3,29.88,SE,135,8.1,11.4,66,0.00,,,0.00,WUHU216HW,2013-10-04 22:48:00,
2013-10-04 17:49:00,79.7,66.9,29.88,SSE,158,11.4,11.4,65,0.00,,,0.00,WUHU216HW,2013-10-04 22:49:00,
2013-10-04 17:51:00,79.7,67.3,29.88,South,180,6.9,11.4,66,0.00,,,0.00,WUHU216HW,2013-10-04 22:51:00,
2013-10-04 17:53:00,79.7,67.3,29.88,SSE,158,7.2,11.4,66,0.00,,,0.00,WUHU216HW,2013-10-04 22:53:00,
2013-10-04 17:54:00,79.6,67.1,29.88,SSE,158,8.3,11.4,66,0.00,,,0.00,WUHU216HW,2013-10-04 22:54:00,
2013-10-04 17:55:00,79.6,66.8,29.88,SSE,158,10.1,11.4,65,0.00,,,0.00,WUHU216HW,2013-10-04 22:55:00,
2013-10-04 17:56:00,79.7,67.3,29.88,SE,135,5.8,11.4,66,0.00,,,0.00,WUHU216HW,2013-10-04 22:56:00,
2013-10-04 17:58:00,79.9,67.5,29.88,SSE,158,6.9,11.4,66,0.00,,,0.00,WUHU216HW,2013-10-04 22:58:00,
2013-10-04 17:59:00,79.9,67.1,29.88,SSE,158,4.7,11.4,65,0.00,,,0.00,WUHU216HW,2013-10-04 22:59:00,
2013-10-04 18:00:00,80.1,67.7,29.88,SSE,158,5.8,10.5,66,0.00,,,0.00,WUHU216HW,2013-10-04 23:00:00,
2013-10-04 18:01:00,80.3,67.4,29.88,SE,135,5.1,10.5,65,0.00,,,0.00,WUHU216HW,2013-10-04 23:01:00,
2013-10-04 18:03:00,80.3,67.4,29.88,SSE,158,6.7,10.5,65,0.00,,,0.00,WUHU216HW,2013-10-04 23:03:00,
2013-10-04 18:04:00,80.3,67.4,29.88,SSE,158,6.9,10.5,65,0.00,,,0.00,WUHU216HW,2013-10-04 23:04:00,
2013-10-04 18:05:00,80.1,67.2,29.88,SSE,158,6.0,10.1,65,0.00,,,0.00,WUHU216HW,2013-10-04 23:05:00,
2013-10-04 18:07:00,80.1,67.2,29.88,South,180,6.7,8.5,65,0.00,,,0.00,WUHU216HW,2013-10-04 23:07:00,
2013-10-04 18:08:00,79.9,67.1,29.88,SSE,158,5.8,8.5,65,0.00,,,0.00,WUHU216HW,2013-10-04 23:08:00,
2013-10-04 18:09:00,79.9,67.5,29.88,SSE,158,5.4,8.5,66,0.00,,,0.00,WUHU216HW,2013-10-04 23:09:00,
2013-10-04 18:11:00,79.7,67.3,29.88,SE,135,7.4,8.5,66,0.00,,,0.00,WUHU216HW,2013-10-04 23:11:00,
2013-10-04 18:12:00,79.6,67.1,29.88,SSE,158,7.6,8.5,66,0.00,,,0.00,WUHU216HW,2013-10-04 23:12:00,
2013-10-04 18:14:00,79.6,67.1,29.87,SE,135,9.8,9.8,66,0.00,,,0.00,WUHU216HW,2013-10-04 23:14:00,
2013-10-04 18:16:00,79.4,66.6,29.87,SE,135,7.2,10.7,65,0.00,,,0.00,WUHU216HW,2013-10-04 23:16:00,
2013-10-04 18:18:00,79.4,67.1,29.87,SSE,158,9.4,10.7,66,0.00,,,0.00,WUHU216HW,2013-10-04 23:18:00,
2013-10-04 18:19:00,79.4,67.1,29.87,SE,135,5.4,10.7,66,0.00,,,0.00,WUHU216HW,2013-10-04 23:19:00,
2013-10-04 18:20:00,79.4,67.1,29.87,SE,135,5.4,10.7,66,0.00,,,0.00,WUHU216HW,2013-10-04 23:20:00,
2013-10-04 18:22:00,79.6,67.1,29.87,SE,135,10.5,10.7,66,0.00,,,0.00,WUHU216HW,2013-10-04 23:22:00,
2013-10-04 18:23:00,79.6,66.8,29.87,SE,135,7.6,10.7,65,0.00,,,0.00,WUHU216HW,2013-10-04 23:23:00,
2013-10-04 18:25:00,79.7,66.9,29.87,South,180,10.1,10.7,65,0.00,,,0.00,WUHU216HW,2013-10-04 23:25:00,
2013-10-04 18:26:00,79.7,66.9,29.87,SE,135,7.6,10.7,65,0.00,,,0.00,WUHU216HW,2013-10-04 23:26:00,
2013-10-04 18:28:00,79.9,67.1,29.87,SE,135,7.6,10.7,65,0.00,,,0.00,WUHU216HW,2013-10-04 23:28:00,
2013-10-04 18:30:00,79.7,66.9,29.87,SSE,158,6.5,10.7,65,0.00,,,0.00,WUHU216HW,2013-10-04 23:30:00,
2013-10-04 18:31:00,79.7,66.9,29.87,SSE,158,8.7,10.7,65,0.00,,,0.00,WUHU216HW,2013-10-04 23:31:00,
2013-10-04 18:33:00,79.6,66.8,29.87,SSE,158,9.2,10.7,65,0.00,,,0.00,WUHU216HW,2013-10-04 23:33:00,
2013-10-04 18:34:00,79.6,66.8,29.87,SSE,158,9.8,10.7,65,0.00,,,0.00,WUHU216HW,2013-10-04 23:34:00,
2013-10-04 18:35:00,79.6,66.8,29.87,SE,135,7.8,9.8,65,0.00,,,0.00,WUHU216HW,2013-10-04 23:35:00,
2013-10-04 18:36:00,79.6,66.8,29.87,SSE,158,7.2,9.8,65,0.00,,,0.00,WUHU216HW,2013-10-04 23:36:00,
2013-10-04 18:39:00,79.2,66.4,29.87,SSE,158,6.5,9.8,65,0.00,,,0.00,WUHU216HW,2013-10-04 23:39:00,
2013-10-04 18:40:00,79.2,66.9,29.87,SSE,158,7.4,9.8,66,0.00,,,0.00,WUHU216HW,2013-10-04 23:40:00,
2013-10-04 18:41:00,79.2,66.9,29.87,SSE,158,7.8,9.8,66,0.00,,,0.00,WUHU216HW,2013-10-04 23:41:00,
2013-10-04 18:42:00,79.0,66.7,29.87,SSE,158,5.4,9.8,66,0.00,,,0.00,WUHU216HW,2013-10-04 23:42:00,
2013-10-04 18:44:00,78.7,66.3,29.87,SSE,158,5.4,9.8,66,0.00,,,0.00,WUHU216HW,2013-10-04 23:44:00,
2013-10-04 18:46:00,78.5,66.2,29.87,SSE,158,7.6,8.7,66,0.00,,,0.00,WUHU216HW,2013-10-04 23:46:00,
2013-10-04 18:47:00,78.3,66.4,29.87,SSE,158,5.1,8.7,67,0.00,,,0.00,WUHU216HW,2013-10-04 23:47:00,
2013-10-04 18:49:00,78.1,66.2,29.87,SSE,158,8.7,8.7,67,0.00,,,0.00,WUHU216HW,2013-10-04 23:49:00,
2013-10-04 18:50:00,77.9,66.1,29.87,SSE,158,7.2,8.7,67,0.00,,,0.00,WUHU216HW,2013-10-04 23:50:00,
2013-10-04 18:51:00,77.9,66.1,29.87,SSE,158,5.4,8.7,67,0.00,,,0.00,WUHU216HW,2013-10-04 23:51:00,
2013-10-04 18:52:00,77.8,65.9,29.87,SSE,158,8.3,8.7,67,0.00,,,0.00,WUHU216HW,2013-10-04 23:52:00,
2013-10-04 18:54:00,77.8,65.9,29.87,SE,135,9.6,9.6,67,0.00,,,0.00,WUHU216HW,2013-10-04 23:54:00,
2013-10-04 18:55:00,77.8,66.3,29.87,SSE,158,6.5,9.6,68,0.00,,,0.00,WUHU216HW,2013-10-04 23:55:00,
2013-10-04 18:56:00,77.6,66.3,29.87,SSE,158,8.5,9.6,68,0.00,,,0.00,WUHU216HW,2013-10-04 23:56:00,
2013-10-04 18:57:00,77.4,66.1,29.86,SSE,158,5.6,9.6,68,0.00,,,0.00,WUHU216HW,2013-10-04 23:57:00,
2013-10-04 18:58:00,77.4,66.1,29.87,SSE,158,8.5,9.6,68,0.00,,,0.00,WUHU216HW,2013-10-04 23:58:00,
2013-10-04 19:01:00,77.4,66.1,29.87,SSE,158,7.6,9.8,68,0.00,,,0.00,WUHU216HW,2013-10-05 00:01:00,
2013-10-04 19:02:00,77.2,65.9,29.86,SE,135,8.9,9.8,68,0.00,,,0.00,WUHU216HW,2013-10-05 00:02:00,
2013-10-04 19:03:00,77.2,65.9,29.86,SSE,158,6.3,9.8,68,0.00,,,0.00,WUHU216HW,2013-10-05 00:03:00,
2013-10-04 19:04:00,77.0,65.7,29.86,SSE,158,8.5,9.8,68,0.00,,,0.00,WUHU216HW,2013-10-05 00:04:00,
2013-10-04 19:06:00,77.0,65.7,29.86,SE,135,6.5,9.8,68,0.00,,,0.00,WUHU216HW,2013-10-05 00:06:00,
2013-10-04 19:07:00,77.0,65.7,29.86,SE,135,8.7,9.8,68,0.00,,,0.00,WUHU216HW,2013-10-05 00:07:00,
2013-10-04 19:08:00,77.0,65.7,29.86,SSE,158,7.8,9.8,68,0.00,,,0.00,WUHU216HW,2013-10-05 00:08:00,
2013-10-04 19:09:00,77.0,65.7,29.86,SE,135,8.3,9.8,68,0.00,,,0.00,WUHU216HW,2013-10-05 00:09:00,
2013-10-04 19:11:00,76.9,66.0,29.86,SSE,158,4.3,9.4,69,0.00,,,0.00,WUHU216HW,2013-10-05 00:11:00,
2013-10-04 19:12:00,76.7,65.8,29.87,SSE,158,5.4,9.4,69,0.00,,,0.00,WUHU216HW,2013-10-05 00:12:00,
2013-10-04 19:13:00,76.7,65.8,29.87,SSE,158,5.4,9.4,69,0.00,,,0.00,WUHU216HW,2013-10-05 00:13:00,
2013-10-04 19:14:00,76.7,65.8,29.87,SSE,158,6.0,9.4,69,0.00,,,0.00,WUHU216HW,2013-10-05 00:14:00,
2013-10-04 19:16:00,76.5,65.6,29.87,SSE,158,7.2,8.9,69,0.00,,,0.00,WUHU216HW,2013-10-05 00:16:00,
2013-10-04 19:17:00,76.5,65.6,29.87,SSE,158,6.5,8.9,69,0.00,,,0.00,WUHU216HW,2013-10-05 00:17:00,
2013-10-04 19:18:00,76.5,65.6,29.87,SSE,158,4.7,8.3,69,0.00,,,0.00,WUHU216HW,2013-10-05 00:18:00,
2013-10-04 19:21:00,76.3,65.4,29.87,SSE,158,6.9,8.1,69,0.00,,,0.00,WUHU216HW,2013-10-05 00:21:00,
2013-10-04 19:22:00,76.3,65.4,29.86,SE,135,7.4,8.1,69,0.00,,,0.00,WUHU216HW,2013-10-05 00:22:00,
2013-10-04 19:23:00,76.3,65.4,29.86,SSE,158,7.8,8.1,69,0.00,,,0.00,WUHU216HW,2013-10-05 00:23:00,
2013-10-04 19:26:00,76.1,65.3,29.87,SSE,158,7.4,8.1,69,0.00,,,0.00,WUHU216HW,2013-10-05 00:26:00,
2013-10-04 19:27:00,76.1,65.3,29.87,SSE,158,6.0,8.1,69,0.00,,,0.00,WUHU216HW,2013-10-05 00:27:00,
2013-10-04 19:28:00,76.1,65.3,29.87,SSE,158,4.9,8.1,69,0.00,,,0.00,WUHU216HW,2013-10-05 00:28:00,
2013-10-04 19:30:00,76.0,65.1,29.87,SSE,158,4.9,8.1,69,0.00,,,0.00,WUHU216HW,2013-10-05 00:30:00,
2013-10-04 19:32:00,76.0,65.1,29.87,SSE,158,6.9,8.1,69,0.00,,,0.00,WUHU216HW,2013-10-05 00:32:00,
2013-10-04 19:33:00,76.0,65.1,29.87,SSE,158,6.5,8.1,69,0.00,,,0.00,WUHU216HW,2013-10-05 00:33:00,
2013-10-04 19:35:00,76.0,65.1,29.87,South,180,7.6,9.4,69,0.00,,,0.00,WUHU216HW,2013-10-05 00:35:00,
2013-10-04 19:37:00,76.0,65.1,29.87,SE,135,8.1,9.4,69,0.00,,,0.00,WUHU216HW,2013-10-05 00:37:00,
2013-10-04 19:38:00,76.0,65.1,29.87,SSE,158,7.2,9.4,69,0.00,,,0.00,WUHU216HW,2013-10-05 00:38:00,
2013-10-04 19:39:00,75.8,64.9,29.87,SE,135,6.3,9.4,69,0.00,,,0.00,WUHU216HW,2013-10-05 00:39:00,
2013-10-04 19:41:00,76.0,65.1,29.87,SSE,158,5.4,9.4,69,0.00,,,0.00,WUHU216HW,2013-10-05 00:41:00,
2013-10-04 19:43:00,75.8,64.9,29.87,SE,135,6.0,9.4,69,0.00,,,0.00,WUHU216HW,2013-10-05 00:43:00,
2013-10-04 19:44:00,75.8,64.9,29.87,SSE,158,6.9,9.4,69,0.00,,,0.00,WUHU216HW,2013-10-05 00:44:00,
2013-10-04 19:47:00,75.6,64.7,29.88,South,180,5.6,8.3,69,0.00,,,0.00,WUHU216HW,2013-10-05 00:47:00,
2013-10-04 19:48:00,75.8,64.9,29.88,South,180,6.0,8.3,69,0.00,,,0.00,WUHU216HW,2013-10-05 00:48:00,
2013-10-04 19:49:00,75.8,64.9,29.88,South,180,5.4,8.3,69,0.00,,,0.00,WUHU216HW,2013-10-05 00:49:00,
2013-10-04 19:52:00,75.6,65.2,29.89,SSE,158,3.8,8.3,70,0.00,,,0.00,WUHU216HW,2013-10-05 00:52:00,
2013-10-04 19:53:00,75.4,65.0,29.88,SSE,158,4.0,8.3,70,0.00,,,0.00,WUHU216HW,2013-10-05 00:53:00,
2013-10-04 19:54:00,75.2,64.8,29.88,South,180,4.9,8.3,70,0.00,,,0.00,WUHU216HW,2013-10-05 00:54:00,
2013-10-04 19:55:00,75.2,64.8,29.88,SE,135,6.3,8.3,70,0.00,,,0.00,WUHU216HW,2013-10-05 00:55:00,
2013-10-04 19:57:00,75.2,64.8,29.89,SSE,158,4.9,6.9,70,0.00,,,0.00,WUHU216HW,2013-10-05 00:57:00,
2013-10-04 19:58:00,75.2,64.8,29.89,SE,135,5.4,6.9,70,0.00,,,0.00,WUHU216HW,2013-10-05 00:58:00,
2013-10-04 19:59:00,75.2,64.8,29.89,SSE,158,5.6,6.9,70,0.00,,,0.00,WUHU216HW,2013-10-05 00:59:00,
2013-10-04 20:00:00,75.1,64.6,29.89,SSE,158,4.5,6.9,70,0.00,,,0.00,WUHU216HW,2013-10-05 01:00:00,
2013-10-04 20:02:00,75.1,65.1,29.89,SSE,158,4.0,6.9,71,0.00,,,0.00,WUHU216HW,2013-10-05 01:02:00,
2013-10-04 20:03:00,74.9,64.4,29.89,SSE,158,5.1,6.9,70,0.00,,,0.00,WUHU216HW,2013-10-05 01:03:00,
2013-10-04 20:04:00,74.9,64.9,29.89,SSE,158,4.0,6.9,71,0.00,,,0.00,WUHU216HW,2013-10-05 01:04:00,
2013-10-04 20:05:00,74.9,64.9,29.89,SE,135,4.0,6.9,71,0.00,,,0.00,WUHU216HW,2013-10-05 01:05:00,
2013-10-04 20:07:00,74.7,64.7,29.89,SSE,158,5.4,6.9,71,0.00,,,0.00,WUHU216HW,2013-10-05 01:07:00,
2013-10-04 20:08:00,74.7,64.7,29.89,SE,135,5.4,6.3,71,0.00,,,0.00,WUHU216HW,2013-10-05 01:08:00,
2013-10-04 20:09:00,74.5,64.5,29.89,SE,135,4.9,5.8,71,0.00,,,0.00,WUHU216HW,2013-10-05 01:09:00,
2013-10-04 20:10:00,74.5,64.5,29.89,SE,135,4.3,5.8,71,0.00,,,0.00,WUHU216HW,2013-10-05 01:10:00,
2013-10-04 20:11:00,74.5,64.5,29.89,SSE,158,3.8,5.8,71,0.00,,,0.00,WUHU216HW,2013-10-05 01:11:00,
2013-10-04 20:12:00,74.5,64.5,29.89,SSE,158,4.9,5.8,71,0.00,,,0.00,WUHU216HW,2013-10-05 01:12:00,
2013-10-04 20:13:00,74.5,64.5,29.89,SSE,158,4.3,5.8,71,0.00,,,0.00,WUHU216HW,2013-10-05 01:13:00,
2013-10-04 20:14:00,74.3,64.4,29.89,SSE,158,4.9,5.8,71,0.00,,,0.00,WUHU216HW,2013-10-05 01:14:00,
2013-10-04 20:15:00,74.3,64.4,29.89,SSE,158,4.7,5.8,71,0.00,,,0.00,WUHU216HW,2013-10-05 01:15:00,
2013-10-04 20:16:00,74.3,64.4,29.89,SSE,158,4.7,5.8,71,0.00,,,0.00,WUHU216HW,2013-10-05 01:16:00,
2013-10-04 20:17:00,74.3,64.4,29.89,SSE,158,4.0,5.6,71,0.00,,,0.00,WUHU216HW,2013-10-05 01:17:00,
2013-10-04 20:18:00,74.3,64.4,29.89,SSE,158,4.7,5.8,71,0.00,,,0.00,WUHU216HW,2013-10-05 01:18:00,
2013-10-04 20:19:00,74.3,64.4,29.89,SSE,158,5.8,5.8,71,0.00,,,0.00,WUHU216HW,2013-10-05 01:19:00,
2013-10-04 20:21:00,74.3,64.4,29.90,SSE,158,4.0,6.3,71,0.00,,,0.00,WUHU216HW,2013-10-05 01:21:00,
2013-10-04 20:22:00,74.2,64.2,29.90,SSE,158,4.7,6.3,71,0.00,,,0.00,WUHU216HW,2013-10-05 01:22:00,
2013-10-04 20:23:00,74.2,64.2,29.90,SSE,158,3.4,6.3,71,0.00,,,0.00,WUHU216HW,2013-10-05 01:23:00,
2013-10-04 20:24:00,74.2,64.2,29.90,SSE,158,4.5,6.3,71,0.00,,,0.00,WUHU216HW,2013-10-05 01:24:00,
2013-10-04 20:26:00,74.2,64.6,29.90,SSE,158,3.4,6.3,72,0.00,,,0.00,WUHU216HW,2013-10-05 01:26:00,
2013-10-04 20:27:00,74.0,64.1,29.90,SSE,158,3.4,6.3,71,0.00,,,0.00,WUHU216HW,2013-10-05 01:27:00,
2013-10-04 20:28:00,74.0,64.5,29.90,SSE,158,3.8,6.3,72,0.00,,,0.00,WUHU216HW,2013-10-05 01:28:00,
2013-10-04 20:29:00,74.0,64.5,29.90,SSE,158,3.4,6.3,72,0.00,,,0.00,WUHU216HW,2013-10-05 01:29:00,
2013-10-04 20:30:00,73.8,64.3,29.90,SSE,158,5.1,6.0,72,0.00,,,0.00,WUHU216HW,2013-10-05 01:30:00,
2013-10-04 20:32:00,74.0,64.1,29.90,SSE,158,4.3,5.4,71,0.00,,,0.00,WUHU216HW,2013-10-05 01:32:00,
2013-10-04 20:33:00,74.0,64.5,29.90,SSE,158,3.1,5.4,72,0.00,,,0.00,WUHU216HW,2013-10-05 01:33:00,
2013-10-04 20:34:00,74.0,64.5,29.91,SE,135,3.4,5.4,72,0.00,,,0.00,WUHU216HW,2013-10-05 01:34:00,
2013-10-04 20:35:00,74.0,64.5,29.90,SSE,158,2.5,5.4,72,0.00,,,0.00,WUHU216HW,2013-10-05 01:35:00,
2013-10-04 20:37:00,73.8,64.3,29.91,SE,135,1.8,5.1,72,0.00,,,0.00,WUHU216HW,2013-10-05 01:37:00,
2013-10-04 20:38:00,73.6,64.1,29.91,SE,135,1.3,5.1,72,0.00,,,0.00,WUHU216HW,2013-10-05 01:38:00,
2013-10-04 20:39:00,73.6,64.1,29.91,SE,135,1.3,5.1,72,0.00,,,0.00,WUHU216HW,2013-10-05 01:39:00,
2013-10-04 20:40:00,73.4,64.4,29.91,SE,135,1.8,5.1,73,0.00,,,0.00,WUHU216HW,2013-10-05 01:40:00,
2013-10-04 20:42:00,73.3,64.2,29.91,ESE,113,1.3,3.8,73,0.00,,,0.00,WUHU216HW,2013-10-05 01:42:00,
2013-10-04 20:44:00,73.1,64.0,29.91,ESE,113,1.6,3.4,73,0.00,,,0.00,WUHU216HW,2013-10-05 01:44:00,
2013-10-04 20:45:00,73.1,64.0,29.91,ESE,113,1.6,3.4,73,0.00,,,0.00,WUHU216HW,2013-10-05 01:45:00,
2013-10-04 20:47:00,72.7,64.0,29.91,ESE,113,1.1,2.7,74,0.00,,,0.00,WUHU216HW,2013-10-05 01:47:00,
2013-10-04 20:48:00,72.7,64.0,29.91,ESE,113,2.0,2.7,74,0.00,,,0.00,WUHU216HW,2013-10-05 01:48:00,
2013-10-04 20:49:00,72.5,64.2,29.91,East,90,1.6,2.2,75,0.00,,,0.00,WUHU216HW,2013-10-05 01:49:00,
2013-10-04 20:51:00,72.2,63.5,29.91,East,90,2.0,2.2,74,0.00,,,0.00,WUHU216HW,2013-10-05 01:51:00,
2013-10-04 20:53:00,72.0,63.3,29.91,East,90,1.8,2.2,74,0.00,,,0.00,WUHU216HW,2013-10-05 01:53:00,
2013-10-04 20:54:00,71.8,63.5,29.91,East,90,1.3,2.2,75,0.00,,,0.00,WUHU216HW,2013-10-05 01:54:00,
2013-10-04 20:55:00,71.8,63.5,29.91,East,90,1.3,2.2,75,0.00,,,0.00,WUHU216HW,2013-10-05 01:55:00,
2013-10-04 20:56:00,71.6,63.6,29.91,East,90,1.1,2.2,76,0.00,,,0.00,WUHU216HW,2013-10-05 01:56:00,
2013-10-04 20:58:00,71.5,63.8,29.91,ESE,113,1.8,2.2,77,0.00,,,0.00,WUHU216HW,2013-10-05 01:58:00,
2013-10-04 21:00:00,71.1,63.5,29.91,ESE,113,1.3,2.0,77,0.00,,,0.00,WUHU216HW,2013-10-05 02:00:00,
2013-10-04 21:01:00,70.9,63.3,29.91,ESE,113,1.8,2.2,77,0.00,,,0.00,WUHU216HW,2013-10-05 02:01:00,
2013-10-04 21:02:00,70.7,63.6,29.91,ESE,113,2.2,2.2,78,0.00,,,0.00,WUHU216HW,2013-10-05 02:02:00,
2013-10-04 21:03:00,70.6,63.4,29.91,ESE,113,1.1,2.2,78,0.00,,,0.00,WUHU216HW,2013-10-05 02:03:00,
2013-10-04 21:05:00,70.0,63.2,29.91,SE,135,2.5,2.5,79,0.00,,,0.00,WUHU216HW,2013-10-05 02:05:00,
2013-10-04 21:06:00,70.0,63.2,29.91,SE,135,2.2,2.5,79,0.00,,,0.00,WUHU216HW,2013-10-05 02:06:00,
2013-10-04 21:07:00,69.8,63.4,29.91,SE,135,2.9,2.9,80,0.00,,,0.00,WUHU216HW,2013-10-05 02:07:00,
2013-10-04 21:09:00,69.7,63.2,29.91,SE,135,4.3,4.3,80,0.00,,,0.00,WUHU216HW,2013-10-05 02:09:00,
2013-10-04 21:10:00,69.7,63.2,29.91,ESE,113,3.4,4.3,80,0.00,,,0.00,WUHU216HW,2013-10-05 02:10:00,
2013-10-04 21:11:00,69.8,63.4,29.91,ESE,113,3.6,4.3,80,0.00,,,0.00,WUHU216HW,2013-10-05 02:11:00,
2013-10-04 21:12:00,69.8,63.4,29.91,SE,135,4.0,4.3,80,0.00,,,0.00,WUHU216HW,2013-10-05 02:12:00,
2013-10-04 21:15:00,70.2,63.7,29.91,ESE,113,2.7,4.3,80,0.00,,,0.00,WUHU216HW,2013-10-05 02:15:00,
2013-10-04 21:16:00,70.4,63.6,29.91,ESE,113,3.6,4.3,79,0.00,,,0.00,WUHU216HW,2013-10-05 02:16:00,
2013-10-04 21:17:00,70.4,63.6,29.91,ESE,113,2.0,4.3,79,0.00,,,0.00,WUHU216HW,2013-10-05 02:17:00,
2013-10-04 21:18:00,70.4,63.6,29.91,ESE,113,2.0,4.3,79,0.00,,,0.00,WUHU216HW,2013-10-05 02:18:00,
2013-10-04 21:20:00,70.4,63.6,29.91,SE,135,2.2,4.3,79,0.00,,,0.00,WUHU216HW,2013-10-05 02:20:00,
2013-10-04 21:21:00,70.6,63.7,29.91,SE,135,1.8,4.3,79,0.00,,,0.00,WUHU216HW,2013-10-05 02:21:00,
2013-10-04 21:23:00,70.6,63.7,29.92,SE,135,1.3,4.3,79,0.00,,,0.00,WUHU216HW,2013-10-05 02:23:00,
2013-10-04 21:25:00,70.6,63.7,29.92,SE,135,1.1,4.0,79,0.00,,,0.00,WUHU216HW,2013-10-05 02:25:00,
2013-10-04 21:26:00,70.6,63.7,29.92,ESE,113,2.9,3.4,79,0.00,,,0.00,WUHU216HW,2013-10-05 02:26:00,
2013-10-04 21:27:00,70.6,63.7,29.92,ESE,113,1.6,3.1,79,0.00,,,0.00,WUHU216HW,2013-10-05 02:27:00,
2013-10-04 21:28:00,70.6,63.7,29.92,ESE,113,3.1,3.1,79,0.00,,,0.00,WUHU216HW,2013-10-05 02:28:00,
2013-10-04 21:30:00,70.6,63.7,29.92,SE,135,3.4,4.0,79,0.00,,,0.00,WUHU216HW,2013-10-05 02:30:00,
2013-10-04 21:31:00,70.6,63.7,29.92,SE,135,2.9,4.0,79,0.00,,,0.00,WUHU216HW,2013-10-05 02:31:00,
2013-10-04 21:32:00,70.6,63.7,29.92,ESE,113,3.4,4.0,79,0.00,,,0.00,WUHU216HW,2013-10-05 02:32:00,
2013-10-04 21:34:00,70.7,63.9,29.92,SE,135,3.4,4.0,79,0.00,,,0.00,WUHU216HW,2013-10-05 02:34:00,
2013-10-04 21:36:00,70.7,63.9,29.92,ESE,113,2.9,4.0,79,0.00,,,0.00,WUHU216HW,2013-10-05 02:36:00,
2013-10-04 21:38:00,70.6,63.7,29.92,ESE,113,3.1,4.0,79,0.00,,,0.00,WUHU216HW,2013-10-05 02:38:00,
2013-10-04 21:39:00,70.7,63.9,29.92,ESE,113,4.3,4.5,79,0.00,,,0.00,WUHU216HW,2013-10-05 02:39:00,
2013-10-04 21:41:00,70.7,63.9,29.92,ESE,113,3.4,4.5,79,0.00,,,0.00,WUHU216HW,2013-10-05 02:41:00,
2013-10-04 21:42:00,70.7,63.9,29.92,ESE,113,3.6,4.5,79,0.00,,,0.00,WUHU216HW,2013-10-05 02:42:00,
2013-10-04 21:44:00,70.6,63.7,29.92,SE,135,3.8,4.5,79,0.00,,,0.00,WUHU216HW,2013-10-05 02:44:00,
2013-10-04 21:45:00,70.6,63.7,29.92,ESE,113,2.9,4.5,79,0.00,,,0.00,WUHU216HW,2013-10-05 02:45:00,
2013-10-04 21:47:00,70.6,63.7,29.92,SE,135,3.1,4.5,79,0.00,,,0.00,WUHU216HW,2013-10-05 02:47:00,
2013-10-04 21:49:00,70.6,63.7,29.92,SE,135,2.2,4.3,79,0.00,,,0.00,WUHU216HW,2013-10-05 02:49:00,
2013-10-04 21:50:00,70.7,63.9,29.92,SE,135,3.4,4.3,79,0.00,,,0.00,WUHU216HW,2013-10-05 02:50:00,
2013-10-04 21:52:00,70.7,63.9,29.92,SE,135,1.6,4.3,79,0.00,,,0.00,WUHU216HW,2013-10-05 02:52:00,
2013-10-04 21:54:00,70.7,63.6,29.92,SE,135,2.5,4.0,78,0.00,,,0.00,WUHU216HW,2013-10-05 02:54:00,
2013-10-04 21:55:00,70.7,63.9,29.92,SE,135,1.8,4.0,79,0.00,,,0.00,WUHU216HW,2013-10-05 02:55:00,
2013-10-04 21:57:00,70.9,63.7,29.92,SE,135,3.4,3.8,78,0.00,,,0.00,WUHU216HW,2013-10-05 02:57:00,
2013-10-04 21:58:00,70.7,63.6,29.92,SSE,158,2.2,3.8,78,0.00,,,0.00,WUHU216HW,2013-10-05 02:58:00,
2013-10-04 21:59:00,70.7,63.6,29.92,SE,135,2.7,4.0,78,0.00,,,0.00,WUHU216HW,2013-10-05 02:59:00,
2013-10-04 22:00:00,70.7,63.6,29.92,SE,135,2.7,4.0,78,0.00,,,0.00,WUHU216HW,2013-10-05 03:00:00,
2013-10-04 22:01:00,70.7,63.6,29.92,SE,135,2.7,4.0,78,0.00,,,0.00,WUHU216HW,2013-10-05 03:01:00,
2013-10-04 22:03:00,70.7,63.6,29.92,SE,135,4.0,4.0,78,0.00,,,0.00,WUHU216HW,2013-10-05 03:03:00,
2013-10-04 22:05:00,70.7,63.6,29.92,SE,135,2.5,4.0,78,0.00,,,0.00,WUHU216HW,2013-10-05 03:05:00,
2013-10-04 22:06:00,70.7,63.6,29.92,SE,135,2.2,4.0,78,0.00,,,0.00,WUHU216HW,2013-10-05 03:06:00,
2013-10-04 22:08:00,70.7,63.9,29.92,ESE,113,2.5,4.0,79,0.00,,,0.00,WUHU216HW,2013-10-05 03:08:00,
2013-10-04 22:09:00,70.7,63.9,29.92,SE,135,2.5,4.0,79,0.00,,,0.00,WUHU216HW,2013-10-05 03:09:00,
2013-10-04 22:10:00,70.7,63.9,29.92,SE,135,3.4,4.0,79,0.00,,,0.00,WUHU216HW,2013-10-05 03:10:00,
2013-10-04 22:11:00,70.7,63.9,29.92,SE,135,3.4,4.0,79,0.00,,,0.00,WUHU216HW,2013-10-05 03:11:00,
2013-10-04 22:13:00,70.6,63.7,29.92,ESE,113,3.1,4.0,79,0.00,,,0.00,WUHU216HW,2013-10-05 03:13:00,
2013-10-04 22:14:00,70.6,63.7,29.92,ESE,113,3.4,4.0,79,0.00,,,0.00,WUHU216HW,2013-10-05 03:14:00,
2013-10-04 22:15:00,70.6,63.7,29.92,ESE,113,2.7,4.0,79,0.00,,,0.00,WUHU216HW,2013-10-05 03:15:00,
2013-10-04 22:16:00,70.6,63.7,29.92,ESE,113,2.7,4.0,79,0.00,,,0.00,WUHU216HW,2013-10-05 03:16:00,
2013-10-04 22:17:00,70.6,63.7,29.92,ESE,113,2.5,4.0,79,0.00,,,0.00,WUHU216HW,2013-10-05 03:17:00,
2013-10-04 22:18:00,70.4,63.6,29.92,SE,135,4.5,4.5,79,0.00,,,0.00,WUHU216HW,2013-10-05 03:18:00,
2013-10-04 22:20:00,70.4,63.6,29.92,SE,135,3.4,4.5,79,0.00,,,0.00,WUHU216HW,2013-10-05 03:20:00,
2013-10-04 22:21:00,70.4,63.6,29.92,SE,135,3.4,4.5,79,0.00,,,0.00,WUHU216HW,2013-10-05 03:21:00,
2013-10-04 22:22:00,70.4,63.6,29.92,SE,135,2.5,4.5,79,0.00,,,0.00,WUHU216HW,2013-10-05 03:22:00,
2013-10-04 22:23:00,70.2,63.4,29.92,SE,135,3.4,4.5,79,0.00,,,0.00,WUHU216HW,2013-10-05 03:23:00,
2013-10-04 22:25:00,70.4,63.6,29.93,SE,135,3.1,4.5,79,0.00,,,0.00,WUHU216HW,2013-10-05 03:25:00,
2013-10-04 22:26:00,70.4,63.6,29.93,SE,135,3.4,4.5,79,0.00,,,0.00,WUHU216HW,2013-10-05 03:26:00,
2013-10-04 22:28:00,70.4,63.6,29.93,SE,135,2.5,4.5,79,0.00,,,0.00,WUHU216HW,2013-10-05 03:28:00,
2013-10-04 22:30:00,70.4,63.6,29.92,SE,135,4.0,4.0,79,0.00,,,0.00,WUHU216HW,2013-10-05 03:30:00,
2013-10-04 22:31:00,70.4,63.6,29.93,SE,135,3.6,4.3,79,0.00,,,0.00,WUHU216HW,2013-10-05 03:31:00,
2013-10-04 22:32:00,70.4,63.6,29.92,SE,135,3.4,4.3,79,0.00,,,0.00,WUHU216HW,2013-10-05 03:32:00,
2013-10-04 22:34:00,70.4,63.6,29.92,SE,135,4.0,4.3,79,0.00,,,0.00,WUHU216HW,2013-10-05 03:34:00,
2013-10-04 22:36:00,70.2,63.7,29.92,SE,135,3.6,4.3,80,0.00,,,0.00,WUHU216HW,2013-10-05 03:36:00,
2013-10-04 22:37:00,70.2,63.7,29.92,SE,135,2.9,4.3,80,0.00,,,0.00,WUHU216HW,2013-10-05 03:37:00,
2013-10-04 22:39:00,70.2,63.7,29.92,SE,135,3.6,4.3,80,0.00,,,0.00,WUHU216HW,2013-10-05 03:39:00,
2013-10-04 22:41:00,70.2,63.7,29.92,ESE,113,3.6,4.0,80,0.00,,,0.00,WUHU216HW,2013-10-05 03:41:00,
2013-10-04 22:42:00,70.2,63.7,29.92,SE,135,4.5,4.5,80,0.00,,,0.00,WUHU216HW,2013-10-05 03:42:00,
2013-10-04 22:44:00,70.0,63.5,29.92,SE,135,4.5,4.5,80,0.00,,,0.00,WUHU216HW,2013-10-05 03:44:00,
2013-10-04 22:46:00,70.0,63.5,29.92,SE,135,3.1,5.1,80,0.00,,,0.00,WUHU216HW,2013-10-05 03:46:00,
2013-10-04 22:48:00,70.2,63.7,29.92,SE,135,4.7,6.3,80,0.00,,,0.00,WUHU216HW,2013-10-05 03:48:00,
2013-10-04 22:49:00,70.2,63.7,29.92,ESE,113,4.0,6.3,80,0.00,,,0.00,WUHU216HW,2013-10-05 03:49:00,
2013-10-04 22:51:00,70.2,63.7,29.92,SE,135,6.5,6.5,80,0.00,,,0.00,WUHU216HW,2013-10-05 03:51:00,
2013-10-04 22:52:00,70.2,63.7,29.92,ESE,113,5.6,6.9,80,0.00,,,0.00,WUHU216HW,2013-10-05 03:52:00,
2013-10-04 22:53:00,70.2,63.7,29.92,SE,135,5.1,6.9,80,0.00,,,0.00,WUHU216HW,2013-10-05 03:53:00,
2013-10-04 22:54:00,70.4,63.9,29.92,SSE,158,3.6,6.9,80,0.00,,,0.00,WUHU216HW,2013-10-05 03:54:00,
2013-10-04 22:56:00,70.4,63.9,29.92,SSE,158,3.8,6.9,80,0.00,,,0.00,WUHU216HW,2013-10-05 03:56:00,
2013-10-04 22:57:00,70.4,63.9,29.92,SE,135,4.0,6.9,80,0.00,,,0.00,WUHU216HW,2013-10-05 03:57:00,
2013-10-04 22:59:00,70.6,64.1,29.92,SE,135,3.4,6.9,80,0.00,,,0.00,WUHU216HW,2013-10-05 03:59:00,
2013-10-04 23:00:00,70.4,63.9,29.92,SE,135,4.3,6.9,80,0.00,,,0.00,WUHU216HW,2013-10-05 04:00:00,
2013-10-04 23:01:00,70.4,63.9,29.92,SE,135,4.0,6.9,80,0.00,,,0.00,WUHU216HW,2013-10-05 04:01:00,
2013-10-04 23:02:00,70.4,63.9,29.92,SE,135,4.0,6.3,80,0.00,,,0.00,WUHU216HW,2013-10-05 04:02:00,
2013-10-04 23:06:00,70.4,63.9,29.92,SE,135,3.6,5.4,80,0.00,,,0.00,WUHU216HW,2013-10-05 04:06:00,
2013-10-04 23:07:00,70.4,63.9,29.92,SSE,158,3.6,5.4,80,0.00,,,0.00,WUHU216HW,2013-10-05 04:07:00,
2013-10-04 23:11:00,70.6,64.1,29.92,SSE,158,3.4,5.4,80,0.00,,,0.00,WUHU216HW,2013-10-05 04:11:00,
2013-10-04 23:12:00,70.6,64.1,29.92,SSE,158,4.7,6.3,80,0.00,,,0.00,WUHU216HW,2013-10-05 04:12:00,
2013-10-04 23:16:00,70.7,64.3,29.93,SSE,158,3.6,6.3,80,0.00,,,0.00,WUHU216HW,2013-10-05 04:16:00,
2013-10-04 23:17:00,70.7,64.6,29.93,SE,135,4.7,6.3,81,0.00,,,0.00,WUHU216HW,2013-10-05 04:17:00,
2013-10-04 23:18:00,70.7,64.6,29.93,South,180,4.7,6.3,81,0.00,,,0.00,WUHU216HW,2013-10-05 04:18:00,
2013-10-04 23:21:00,71.1,65.4,29.93,South,180,4.7,6.3,82,0.00,,,0.00,WUHU216HW,2013-10-05 04:21:00,
2013-10-04 23:22:00,71.1,65.4,29.93,SSE,158,6.3,7.6,82,0.00,,,0.00,WUHU216HW,2013-10-05 04:22:00,
2013-10-04 23:23:00,71.3,65.2,29.93,South,180,4.5,7.6,81,0.00,,,0.00,WUHU216HW,2013-10-05 04:23:00,
2013-10-04 23:26:00,71.3,65.2,29.93,South,180,2.9,7.6,81,0.00,,,0.00,WUHU216HW,2013-10-05 04:26:00,
2013-10-04 23:27:00,71.3,65.2,29.93,South,180,3.4,7.6,81,0.00,,,0.00,WUHU216HW,2013-10-05 04:27:00,
2013-10-04 23:28:00,71.3,65.2,29.93,South,180,3.4,7.6,81,0.00,,,0.00,WUHU216HW,2013-10-05 04:28:00,
2013-10-04 23:31:00,71.3,65.5,29.93,South,180,2.5,7.6,82,0.00,,,0.00,WUHU216HW,2013-10-05 04:31:00,
2013-10-04 23:32:00,71.3,65.5,29.94,South,180,4.0,6.3,82,0.00,,,0.00,WUHU216HW,2013-10-05 04:32:00,
2013-10-04 23:33:00,71.3,65.5,29.94,South,180,3.4,4.9,82,0.00,,,0.00,WUHU216HW,2013-10-05 04:33:00,
2013-10-04 23:34:00,71.3,65.5,29.94,SSE,158,5.1,5.1,82,0.00,,,0.00,WUHU216HW,2013-10-05 04:34:00,
2013-10-04 23:36:00,71.3,65.5,29.94,SSE,158,3.1,5.1,82,0.00,,,0.00,WUHU216HW,2013-10-05 04:36:00,
2013-10-04 23:37:00,71.3,65.5,29.94,SSE,158,3.1,5.1,82,0.00,,,0.00,WUHU216HW,2013-10-05 04:37:00,
2013-10-04 23:38:00,71.1,65.4,29.94,SSE,158,2.5,5.1,82,0.00,,,0.00,WUHU216HW,2013-10-05 04:38:00,
2013-10-04 23:39:00,71.1,65.4,29.94,SSE,158,3.4,5.1,82,0.00,,,0.00,WUHU216HW,2013-10-05 04:39:00,
2013-10-04 23:40:00,71.1,65.4,29.93,SSE,158,2.5,5.1,82,0.00,,,0.00,WUHU216HW,2013-10-05 04:40:00,
2013-10-04 23:41:00,70.9,65.4,29.94,SSE,158,2.7,5.1,83,0.00,,,0.00,WUHU216HW,2013-10-05 04:41:00,
2013-10-04 23:42:00,70.9,65.4,29.94,SSE,158,3.6,5.1,83,0.00,,,0.00,WUHU216HW,2013-10-05 04:42:00,
2013-10-04 23:43:00,70.9,65.4,29.94,SSE,158,1.8,5.1,83,0.00,,,0.00,WUHU216HW,2013-10-05 04:43:00,
2013-10-04 23:44:00,70.9,65.4,29.94,SSE,158,2.5,5.1,83,0.00,,,0.00,WUHU216HW,2013-10-05 04:44:00,
2013-10-04 23:46:00,70.9,65.4,29.94,South,180,2.0,4.0,83,0.00,,,0.00,WUHU216HW,2013-10-05 04:46:00,
2013-10-04 23:47:00,70.7,65.6,29.94,SSE,158,3.1,3.8,84,0.00,,,0.00,WUHU216HW,2013-10-05 04:47:00,
2013-10-04 23:48:00,70.7,65.6,29.94,SSE,158,2.9,3.8,84,0.00,,,0.00,WUHU216HW,2013-10-05 04:48:00,
2013-10-04 23:51:00,70.7,65.6,29.93,SE,135,3.6,4.3,84,0.00,,,0.00,WUHU216HW,2013-10-05 04:51:00,
2013-10-04 23:52:00,70.7,65.6,29.93,ESE,113,4.7,4.7,84,0.00,,,0.00,WUHU216HW,2013-10-05 04:52:00,
2013-10-04 23:53:00,70.7,65.6,29.92,ESE,113,5.4,6.9,84,0.00,,,0.00,WUHU216HW,2013-10-05 04:53:00,
2013-10-04 23:54:00,70.7,65.6,29.92,SE,135,5.4,6.9,84,0.00,,,0.00,WUHU216HW,2013-10-05 04:54:00,
2013-10-04 23:56:00,70.9,65.8,29.92,SE,135,4.5,7.6,84,0.00,,,0.00,WUHU216HW,2013-10-05 04:56:00,
2013-10-04 23:57:00,70.9,65.8,29.92,SE,135,5.8,7.6,84,0.00,,,0.00,WUHU216HW,2013-10-05 04:57:00,
2013-10-04 23:58:00,70.9,65.8,29.92,SSE,158,5.1,7.6,84,0.00,,,0.00,WUHU216HW,2013-10-05 04:58:00,
2013-10-04 23:59:00,71.1,66.3,29.92,SE,135,4.5,7.6,85,0.00,,,0.00,WUHU216HW,2013-10-05 04:59:00,